Time,TemperatureF,DewpointF,PressureIn,WindDirection,WindDirectionDegrees,WindSpeedMPH,WindSpeedGustMPH,Humidity,HourlyPrecipIn,Conditions,Clouds,dailyrainin,SolarRadiationWatts/m^2,SoftwareType,DateUTC
2013-11-01 00:01:00,39.9,39.4,29.28,North,350,0.0,0.0,98,0.05,,,0.00,0,WeatherCatV1.21B27,2013-11-01 04:01:00,
2013-11-01 00:06:00,39.9,39.4,29.28,North,350,0.0,0.0,98,0.07,,,0.00,0,WeatherCatV1.21B27,2013-11-01 04:06:00,
2013-11-01 00:11:00,40.0,39.5,29.27,North,350,0.0,0.0,98,0.07,,,0.01,0,WeatherCatV1.21B27,2013-11-01 04:11:00,
2013-11-01 00:12:00,40.0,39.5,29.27,North,350,0.0,0.0,98,0.07,,,0.01,0,WeatherCatV1.21B27,2013-11-01 04:12:00,
2013-11-01 00:16:00,40.0,39.5,29.26,North,350,0.0,0.0,98,0.09,,,0.02,0,WeatherCatV1.21B27,2013-11-01 04:16:00,
2013-11-01 00:17:00,40.0,39.5,29.26,North,350,0.0,0.0,98,0.09,,,0.02,0,WeatherCatV1.21B27,2013-11-01 04:17:00,
2013-11-01 00:21:00,40.1,39.6,29.26,North,350,0.0,0.0,98,0.07,,,0.03,0,WeatherCatV1.21B27,2013-11-01 04:21:00,
2013-11-01 00:22:00,40.1,39.6,29.26,North,350,0.0,0.0,98,0.07,,,0.03,0,WeatherCatV1.21B27,2013-11-01 04:22:00,
2013-11-01 00:23:00,40.1,39.6,29.26,North,350,0.0,0.0,98,0.07,,,0.03,0,WeatherCatV1.21B27,2013-11-01 04:23:00,
2013-11-01 00:26:00,40.2,39.7,29.26,North,350,0.0,0.0,98,0.07,,,0.03,0,WeatherCatV1.21B27,2013-11-01 04:26:00,
2013-11-01 00:27:00,40.2,39.7,29.26,North,350,0.0,0.0,98,0.07,,,0.03,0,WeatherCatV1.21B27,2013-11-01 04:27:00,
2013-11-01 00:28:00,40.2,39.7,29.26,North,350,0.0,0.0,98,0.07,,,0.03,0,WeatherCatV1.21B27,2013-11-01 04:28:00,
2013-11-01 00:32:00,40.4,39.9,29.25,North,350,0.0,0.0,98,0.06,,,0.03,0,WeatherCatV1.21B27,2013-11-01 04:32:00,
2013-11-01 00:33:00,40.3,39.8,29.25,North,350,0.0,0.0,98,0.05,,,0.04,0,WeatherCatV1.21B27,2013-11-01 04:33:00,
2013-11-01 00:34:00,40.4,39.9,29.25,North,350,0.0,0.0,98,0.05,,,0.04,0,WeatherCatV1.21B27,2013-11-01 04:34:00,
2013-11-01 00:37:00,40.4,39.9,29.25,North,350,0.0,0.0,98,0.05,,,0.04,0,WeatherCatV1.21B27,2013-11-01 04:37:00,
2013-11-01 00:38:00,40.4,39.9,29.25,North,350,0.0,0.0,98,0.05,,,0.04,0,WeatherCatV1.21B27,2013-11-01 04:38:00,
2013-11-01 00:39:00,40.4,39.9,29.24,North,350,0.0,0.0,98,0.10,,,0.05,0,WeatherCatV1.21B27,2013-11-01 04:39:00,
2013-11-01 00:42:00,40.5,40.0,29.24,North,350,0.0,0.0,98,0.10,,,0.05,0,WeatherCatV1.21B27,2013-11-01 04:42:00,
2013-11-01 00:43:00,40.5,40.0,29.24,North,350,0.0,0.0,98,0.10,,,0.05,0,WeatherCatV1.21B27,2013-11-01 04:43:00,
2013-11-01 00:44:00,40.5,40.0,29.24,North,350,0.0,0.0,98,0.12,,,0.06,0,WeatherCatV1.21B27,2013-11-01 04:44:00,
2013-11-01 00:45:00,40.5,40.0,29.24,North,350,0.0,0.0,98,0.12,,,0.06,0,WeatherCatV1.21B27,2013-11-01 04:45:00,
2013-11-01 00:47:00,40.5,40.0,29.24,North,350,0.0,0.0,98,0.12,,,0.06,0,WeatherCatV1.21B27,2013-11-01 04:47:00,
2013-11-01 00:48:00,40.5,40.0,29.24,North,350,0.0,0.0,98,0.12,,,0.06,0,WeatherCatV1.21B27,2013-11-01 04:48:00,
2013-11-01 00:49:00,40.6,40.1,29.24,North,350,0.0,0.0,98,0.11,,,0.06,0,WeatherCatV1.21B27,2013-11-01 04:49:00,
2013-11-01 00:50:00,40.6,40.1,29.24,North,350,0.0,0.0,98,0.09,,,0.06,0,WeatherCatV1.21B27,2013-11-01 04:50:00,
2013-11-01 00:53:00,40.6,40.1,29.24,North,350,0.0,0.0,98,0.06,,,0.06,0,WeatherCatV1.21B27,2013-11-01 04:53:00,
2013-11-01 00:54:00,40.6,40.1,29.24,North,350,0.0,0.0,98,0.06,,,0.06,0,WeatherCatV1.21B27,2013-11-01 04:54:00,
2013-11-01 00:55:00,40.6,40.1,29.24,North,350,0.0,0.0,98,0.06,,,0.07,0,WeatherCatV1.21B27,2013-11-01 04:55:00,
2013-11-01 00:58:00,40.6,40.1,29.23,North,350,0.0,0.0,98,0.06,,,0.07,0,WeatherCatV1.21B27,2013-11-01 04:58:00,
2013-11-01 00:59:00,40.6,40.1,29.23,North,350,0.0,0.0,98,0.06,,,0.07,0,WeatherCatV1.21B27,2013-11-01 04:59:00,
2013-11-01 01:00:00,40.6,40.1,29.23,North,350,0.0,0.0,98,0.06,,,0.07,0,WeatherCatV1.21B27,2013-11-01 05:00:00,
2013-11-01 01:01:00,40.6,40.1,29.23,North,350,0.0,0.0,98,0.06,,,0.07,0,WeatherCatV1.21B27,2013-11-01 05:01:00,
2013-11-01 01:03:00,40.7,40.2,29.23,North,350,0.0,0.0,98,0.06,,,0.07,0,WeatherCatV1.21B27,2013-11-01 05:03:00,
2013-11-01 01:04:00,40.7,40.2,29.23,North,350,0.0,0.0,98,0.07,,,0.08,0,WeatherCatV1.21B27,2013-11-01 05:04:00,
2013-11-01 01:05:00,40.7,40.2,29.23,North,350,0.0,0.0,98,0.07,,,0.08,0,WeatherCatV1.21B27,2013-11-01 05:05:00,
2013-11-01 01:06:00,40.7,40.2,29.23,North,350,0.0,0.0,98,0.07,,,0.08,0,WeatherCatV1.21B27,2013-11-01 05:06:00,
2013-11-01 01:08:00,40.7,40.2,29.23,North,350,0.0,0.0,98,0.07,,,0.08,0,WeatherCatV1.21B27,2013-11-01 05:08:00,
2013-11-01 01:09:00,40.7,40.2,29.23,North,350,0.0,0.0,98,0.07,,,0.08,0,WeatherCatV1.21B27,2013-11-01 05:09:00,
2013-11-01 01:10:00,40.7,40.2,29.22,North,350,0.0,0.0,98,0.07,,,0.08,0,WeatherCatV1.21B27,2013-11-01 05:10:00,
2013-11-01 01:11:00,40.7,40.2,29.22,North,350,0.0,0.0,98,0.07,,,0.08,0,WeatherCatV1.21B27,2013-11-01 05:11:00,
2013-11-01 01:13:00,40.7,40.2,29.22,North,350,0.0,0.0,98,0.06,,,0.08,0,WeatherCatV1.21B27,2013-11-01 05:13:00,
2013-11-01 01:14:00,40.8,40.3,29.22,North,350,0.0,0.0,98,0.06,,,0.08,0,WeatherCatV1.21B27,2013-11-01 05:14:00,
2013-11-01 01:16:00,40.8,40.3,29.22,North,350,0.0,0.0,98,0.05,,,0.08,0,WeatherCatV1.21B27,2013-11-01 05:16:00,
2013-11-01 01:18:00,40.8,40.3,29.22,North,350,0.0,0.0,98,0.04,,,0.08,0,WeatherCatV1.21B27,2013-11-01 05:18:00,
2013-11-01 01:19:00,40.8,40.3,29.22,North,350,0.0,0.0,98,0.04,,,0.09,0,WeatherCatV1.21B27,2013-11-01 05:19:00,
2013-11-01 01:21:00,40.8,40.3,29.22,North,350,0.0,0.0,98,0.04,,,0.09,0,WeatherCatV1.21B27,2013-11-01 05:21:00,
2013-11-01 01:23:00,40.8,40.3,29.22,North,350,0.0,0.0,98,0.04,,,0.09,0,WeatherCatV1.21B27,2013-11-01 05:23:00,
2013-11-01 01:24:00,40.8,40.3,29.22,North,350,0.0,0.0,98,0.04,,,0.09,0,WeatherCatV1.21B27,2013-11-01 05:24:00,
2013-11-01 01:25:00,40.9,40.4,29.21,North,350,0.0,0.0,98,0.04,,,0.09,0,WeatherCatV1.21B27,2013-11-01 05:25:00,
2013-11-01 01:26:00,40.9,40.4,29.21,North,350,0.0,0.0,98,0.04,,,0.09,0,WeatherCatV1.21B27,2013-11-01 05:26:00,
2013-11-01 01:27:00,40.9,40.4,29.21,North,350,0.0,0.0,98,0.04,,,0.09,0,WeatherCatV1.21B27,2013-11-01 05:27:00,
2013-11-01 01:28:00,40.9,40.4,29.21,North,350,0.0,0.0,98,0.04,,,0.09,0,WeatherCatV1.21B27,2013-11-01 05:28:00,
2013-11-01 01:29:00,40.9,40.4,29.21,North,350,0.0,0.0,98,0.04,,,0.09,0,WeatherCatV1.21B27,2013-11-01 05:29:00,
2013-11-01 01:30:00,40.9,40.4,29.21,North,350,0.0,0.0,98,0.04,,,0.09,0,WeatherCatV1.21B27,2013-11-01 05:30:00,
2013-11-01 01:32:00,40.9,40.4,29.21,North,350,0.0,0.0,98,0.04,,,0.09,0,WeatherCatV1.21B27,2013-11-01 05:32:00,
2013-11-01 01:34:00,40.9,40.4,29.20,North,350,0.0,0.0,98,0.04,,,0.10,0,WeatherCatV1.21B27,2013-11-01 05:34:00,
2013-11-01 01:35:00,41.0,40.5,29.20,North,350,0.0,0.0,98,0.04,,,0.10,0,WeatherCatV1.21B27,2013-11-01 05:35:00,
2013-11-01 01:38:00,41.0,40.5,29.20,North,350,0.0,0.0,98,0.04,,,0.10,0,WeatherCatV1.21B27,2013-11-01 05:38:00,
2013-11-01 01:39:00,41.0,40.5,29.20,North,350,0.0,0.0,98,0.04,,,0.10,0,WeatherCatV1.21B27,2013-11-01 05:39:00,
2013-11-01 01:40:00,41.0,40.5,29.20,North,350,0.0,0.0,98,0.04,,,0.10,0,WeatherCatV1.21B27,2013-11-01 05:40:00,
2013-11-01 01:43:00,41.0,40.5,29.19,North,350,0.0,0.0,98,0.06,,,0.11,0,WeatherCatV1.21B27,2013-11-01 05:43:00,
2013-11-01 01:45:00,41.1,40.6,29.19,North,350,0.0,0.0,98,0.06,,,0.11,0,WeatherCatV1.21B27,2013-11-01 05:45:00,
2013-11-01 01:46:00,41.1,40.6,29.19,North,350,0.0,0.0,98,0.06,,,0.11,0,WeatherCatV1.21B27,2013-11-01 05:46:00,
2013-11-01 01:48:00,41.1,40.6,29.19,North,350,0.0,0.0,98,0.06,,,0.11,0,WeatherCatV1.21B27,2013-11-01 05:48:00,
2013-11-01 01:50:00,41.1,40.6,29.19,North,350,0.0,0.0,98,0.06,,,0.11,0,WeatherCatV1.21B27,2013-11-01 05:50:00,
2013-11-01 01:51:00,41.2,40.7,29.19,North,350,0.0,0.0,98,0.06,,,0.11,0,WeatherCatV1.21B27,2013-11-01 05:51:00,
2013-11-01 01:52:00,41.1,40.6,29.19,North,350,0.0,0.0,98,0.06,,,0.11,0,WeatherCatV1.21B27,2013-11-01 05:52:00,
2013-11-01 01:53:00,41.2,40.7,29.18,North,350,0.0,0.0,98,0.06,,,0.12,0,WeatherCatV1.21B27,2013-11-01 05:53:00,
2013-11-01 01:54:00,41.2,40.7,29.18,North,350,0.0,0.0,98,0.06,,,0.12,0,WeatherCatV1.21B27,2013-11-01 05:54:00,
2013-11-01 01:55:00,41.3,40.8,29.18,North,350,0.0,0.0,98,0.06,,,0.12,0,WeatherCatV1.21B27,2013-11-01 05:55:00,
2013-11-01 01:57:00,41.2,40.7,29.18,North,350,0.0,0.0,98,0.06,,,0.12,0,WeatherCatV1.21B27,2013-11-01 05:57:00,
2013-11-01 01:58:00,41.3,40.8,29.18,North,350,0.0,0.0,98,0.06,,,0.12,0,WeatherCatV1.21B27,2013-11-01 05:58:00,
2013-11-01 01:59:00,41.3,40.8,29.18,North,350,0.0,0.0,98,0.06,,,0.12,0,WeatherCatV1.21B27,2013-11-01 05:59:00,
2013-11-01 02:00:00,41.3,40.8,29.18,North,350,0.0,0.0,98,0.06,,,0.12,0,WeatherCatV1.21B27,2013-11-01 06:00:00,
2013-11-01 02:02:00,41.3,40.8,29.18,North,350,0.0,0.0,98,0.06,,,0.12,0,WeatherCatV1.21B27,2013-11-01 06:02:00,
2013-11-01 02:03:00,41.3,40.8,29.18,North,350,0.0,0.0,98,0.05,,,0.12,0,WeatherCatV1.21B27,2013-11-01 06:03:00,
2013-11-01 02:04:00,41.3,40.8,29.18,North,350,0.0,0.0,98,0.05,,,0.12,0,WeatherCatV1.21B27,2013-11-01 06:04:00,
2013-11-01 02:06:00,41.3,40.8,29.18,North,350,0.0,0.0,98,0.05,,,0.13,0,WeatherCatV1.21B27,2013-11-01 06:06:00,
2013-11-01 02:07:00,41.3,40.8,29.17,North,350,0.0,0.0,98,0.05,,,0.13,0,WeatherCatV1.21B27,2013-11-01 06:07:00,
2013-11-01 02:08:00,41.4,40.9,29.17,North,350,0.0,0.0,98,0.05,,,0.13,0,WeatherCatV1.21B27,2013-11-01 06:08:00,
2013-11-01 02:09:00,41.4,40.9,29.17,North,350,0.0,0.0,98,0.05,,,0.13,0,WeatherCatV1.21B27,2013-11-01 06:09:00,
2013-11-01 02:11:00,41.4,40.9,29.17,North,350,0.0,0.0,98,0.05,,,0.13,0,WeatherCatV1.21B27,2013-11-01 06:11:00,
2013-11-01 02:12:00,41.4,40.9,29.17,North,350,0.0,0.0,98,0.05,,,0.13,0,WeatherCatV1.21B27,2013-11-01 06:12:00,
2013-11-01 02:14:00,41.4,40.9,29.17,North,350,0.0,0.0,98,0.05,,,0.13,0,WeatherCatV1.21B27,2013-11-01 06:14:00,
2013-11-01 02:15:00,41.4,40.9,29.17,North,350,0.0,0.0,98,0.05,,,0.13,0,WeatherCatV1.21B27,2013-11-01 06:15:00,
2013-11-01 02:16:00,41.5,41.0,29.17,North,350,0.0,0.0,98,0.05,,,0.13,0,WeatherCatV1.21B27,2013-11-01 06:16:00,
2013-11-01 02:17:00,41.5,41.0,29.17,North,350,0.0,0.0,98,0.05,,,0.13,0,WeatherCatV1.21B27,2013-11-01 06:17:00,
2013-11-01 02:20:00,41.5,41.0,29.16,North,350,0.0,0.0,98,0.04,,,0.13,0,WeatherCatV1.21B27,2013-11-01 06:20:00,
2013-11-01 02:22:00,41.5,41.0,29.16,North,350,0.0,0.0,98,0.00,,,0.14,0,WeatherCatV1.21B27,2013-11-01 06:22:00,
2013-11-01 02:25:00,41.6,41.1,29.16,North,350,0.0,0.0,98,0.00,,,0.14,0,WeatherCatV1.21B27,2013-11-01 06:25:00,
2013-11-01 02:27:00,41.6,41.1,29.16,North,350,0.0,0.0,98,0.00,,,0.14,0,WeatherCatV1.21B27,2013-11-01 06:27:00,
2013-11-01 02:30:00,41.6,41.1,29.16,North,350,0.0,0.0,98,0.00,,,0.14,0,WeatherCatV1.21B27,2013-11-01 06:30:00,
2013-11-01 02:31:00,41.6,41.1,29.16,North,350,0.0,0.0,98,0.00,,,0.14,0,WeatherCatV1.21B27,2013-11-01 06:31:00,
2013-11-01 02:32:00,41.6,41.1,29.15,North,350,0.0,0.0,98,0.00,,,0.14,0,WeatherCatV1.21B27,2013-11-01 06:32:00,
2013-11-01 02:33:00,41.6,41.1,29.15,North,350,0.0,0.0,98,0.00,,,0.14,0,WeatherCatV1.21B27,2013-11-01 06:33:00,
2013-11-01 02:34:00,41.6,41.1,29.15,North,350,0.0,0.0,98,0.00,,,0.14,0,WeatherCatV1.21B27,2013-11-01 06:34:00,
2013-11-01 02:36:00,41.7,41.2,29.15,North,350,0.0,0.0,98,0.00,,,0.14,0,WeatherCatV1.21B27,2013-11-01 06:36:00,
2013-11-01 02:37:00,41.7,41.2,29.15,North,350,0.0,0.0,98,0.00,,,0.14,0,WeatherCatV1.21B27,2013-11-01 06:37:00,
2013-11-01 02:38:00,41.7,41.2,29.15,North,350,0.0,0.0,98,0.00,,,0.14,0,WeatherCatV1.21B27,2013-11-01 06:38:00,
2013-11-01 02:39:00,41.7,41.2,29.15,North,350,0.0,0.0,98,0.00,,,0.14,0,WeatherCatV1.21B27,2013-11-01 06:39:00,
2013-11-01 02:41:00,41.8,41.3,29.15,North,350,0.0,0.0,98,0.00,,,0.14,0,WeatherCatV1.21B27,2013-11-01 06:41:00,
2013-11-01 02:42:00,41.8,41.3,29.15,North,350,0.0,0.0,98,0.00,,,0.14,0,WeatherCatV1.21B27,2013-11-01 06:42:00,
2013-11-01 02:43:00,41.8,41.3,29.14,North,350,0.0,0.0,98,0.00,,,0.14,0,WeatherCatV1.21B27,2013-11-01 06:43:00,
2013-11-01 02:44:00,41.8,41.3,29.14,North,350,0.0,0.0,98,0.00,,,0.14,0,WeatherCatV1.21B27,2013-11-01 06:44:00,
2013-11-01 02:46:00,41.9,41.4,29.14,North,350,0.0,0.0,98,0.00,,,0.14,0,WeatherCatV1.21B27,2013-11-01 06:46:00,
2013-11-01 02:48:00,41.9,41.4,29.14,North,350,0.0,0.0,98,0.00,,,0.15,0,WeatherCatV1.21B27,2013-11-01 06:48:00,
2013-11-01 02:49:00,41.9,41.4,29.14,North,350,0.0,0.0,98,0.00,,,0.15,0,WeatherCatV1.21B27,2013-11-01 06:49:00,
2013-11-01 02:51:00,42.0,41.7,29.14,North,350,0.0,1.0,99,0.00,,,0.15,0,WeatherCatV1.21B27,2013-11-01 06:51:00,
2013-11-01 02:53:00,42.0,41.7,29.14,North,350,0.0,0.0,99,0.00,,,0.15,0,WeatherCatV1.21B27,2013-11-01 06:53:00,
2013-11-01 02:54:00,42.0,41.7,29.14,North,350,0.0,0.0,99,0.00,,,0.15,0,WeatherCatV1.21B27,2013-11-01 06:54:00,
2013-11-01 02:56:00,42.1,41.8,29.14,North,350,0.0,0.0,99,0.00,,,0.15,0,WeatherCatV1.21B27,2013-11-01 06:56:00,
2013-11-01 02:58:00,42.1,41.8,29.14,North,350,0.0,0.0,99,0.00,,,0.15,0,WeatherCatV1.21B27,2013-11-01 06:58:00,
2013-11-01 02:59:00,42.2,41.9,29.14,North,350,0.0,0.0,99,0.00,,,0.15,0,WeatherCatV1.21B27,2013-11-01 06:59:00,
2013-11-01 03:00:00,42.2,41.9,29.13,North,350,0.0,0.0,99,0.00,,,0.15,0,WeatherCatV1.21B27,2013-11-01 07:00:00,
2013-11-01 03:01:00,42.2,41.9,29.13,North,350,0.0,0.0,99,0.00,,,0.15,0,WeatherCatV1.21B27,2013-11-01 07:01:00,
2013-11-01 03:03:00,42.3,41.8,29.13,North,350,0.0,1.0,98,0.00,,,0.15,0,WeatherCatV1.21B27,2013-11-01 07:03:00,
2013-11-01 03:04:00,42.3,41.8,29.13,North,350,0.0,1.0,98,0.00,,,0.15,0,WeatherCatV1.21B27,2013-11-01 07:04:00,
2013-11-01 03:05:00,42.3,41.8,29.13,North,350,0.0,1.0,98,0.00,,,0.16,0,WeatherCatV1.21B27,2013-11-01 07:05:00,
2013-11-01 03:07:00,42.3,41.8,29.12,North,350,0.0,0.0,98,0.00,,,0.16,0,WeatherCatV1.21B27,2013-11-01 07:07:00,
2013-11-01 03:09:00,42.3,41.8,29.12,North,350,0.0,0.0,98,0.00,,,0.16,0,WeatherCatV1.21B27,2013-11-01 07:09:00,
2013-11-01 03:10:00,42.4,41.9,29.12,North,350,0.0,0.0,98,0.00,,,0.16,0,WeatherCatV1.21B27,2013-11-01 07:10:00,
2013-11-01 03:12:00,42.4,41.9,29.12,North,350,0.0,0.0,98,0.00,,,0.16,0,WeatherCatV1.21B27,2013-11-01 07:12:00,
2013-11-01 03:14:00,42.4,41.9,29.12,North,350,0.0,0.0,98,0.00,,,0.16,0,WeatherCatV1.21B27,2013-11-01 07:14:00,
2013-11-01 03:15:00,42.4,41.9,29.12,North,350,0.0,0.0,98,0.00,,,0.16,0,WeatherCatV1.21B27,2013-11-01 07:15:00,
2013-11-01 03:17:00,42.5,42.0,29.12,North,350,0.0,0.0,98,0.00,,,0.16,0,WeatherCatV1.21B27,2013-11-01 07:17:00,
2013-11-01 03:19:00,42.5,42.0,29.12,North,350,0.0,0.0,98,0.00,,,0.16,0,WeatherCatV1.21B27,2013-11-01 07:19:00,
2013-11-01 03:20:00,42.5,42.0,29.12,North,350,0.0,0.0,98,0.00,,,0.16,0,WeatherCatV1.21B27,2013-11-01 07:20:00,
2013-11-01 03:21:00,42.5,42.0,29.12,North,350,0.0,0.0,98,0.00,,,0.16,0,WeatherCatV1.21B27,2013-11-01 07:21:00,
2013-11-01 03:23:00,42.5,42.0,29.12,North,350,0.0,0.0,98,0.00,,,0.16,0,WeatherCatV1.21B27,2013-11-01 07:23:00,
2013-11-01 03:24:00,42.5,42.0,29.12,North,350,0.0,0.0,98,0.00,,,0.16,0,WeatherCatV1.21B27,2013-11-01 07:24:00,
2013-11-01 03:25:00,42.5,42.0,29.11,North,350,0.0,0.0,98,0.00,,,0.17,0,WeatherCatV1.21B27,2013-11-01 07:25:00,
2013-11-01 03:26:00,42.5,42.0,29.11,North,350,0.0,0.0,98,0.00,,,0.17,0,WeatherCatV1.21B27,2013-11-01 07:26:00,
2013-11-01 03:27:00,42.5,42.2,29.11,North,350,0.0,0.0,99,0.00,,,0.17,0,WeatherCatV1.21B27,2013-11-01 07:27:00,
2013-11-01 03:28:00,42.5,42.2,29.11,North,350,0.0,0.0,99,0.00,,,0.17,0,WeatherCatV1.21B27,2013-11-01 07:28:00,
2013-11-01 03:29:00,42.5,42.0,29.11,North,350,0.0,0.0,98,0.00,,,0.17,0,WeatherCatV1.21B27,2013-11-01 07:29:00,
2013-11-01 03:30:00,42.5,42.2,29.11,North,350,0.0,0.0,99,0.00,,,0.17,0,WeatherCatV1.21B27,2013-11-01 07:30:00,
2013-11-01 03:31:00,42.5,42.0,29.11,North,350,0.0,0.0,98,0.00,,,0.17,0,WeatherCatV1.21B27,2013-11-01 07:31:00,
2013-11-01 03:32:00,42.5,42.2,29.11,North,350,0.0,0.0,99,0.00,,,0.17,0,WeatherCatV1.21B27,2013-11-01 07:32:00,
2013-11-01 03:34:00,42.5,42.2,29.11,North,350,0.0,0.0,99,0.00,,,0.17,0,WeatherCatV1.21B27,2013-11-01 07:34:00,
2013-11-01 03:35:00,42.6,42.3,29.11,North,350,0.0,0.0,99,0.00,,,0.17,0,WeatherCatV1.21B27,2013-11-01 07:35:00,
2013-11-01 03:36:00,42.6,42.3,29.11,North,350,0.0,0.0,99,0.05,,,0.17,0,WeatherCatV1.21B27,2013-11-01 07:36:00,
2013-11-01 03:38:00,42.6,42.3,29.10,North,350,0.0,0.0,99,0.05,,,0.18,0,WeatherCatV1.21B27,2013-11-01 07:38:00,
2013-11-01 03:40:00,42.6,42.3,29.10,North,350,0.0,0.0,99,0.05,,,0.18,0,WeatherCatV1.21B27,2013-11-01 07:40:00,
2013-11-01 03:41:00,42.6,42.3,29.10,North,350,0.0,0.0,99,0.05,,,0.18,0,WeatherCatV1.21B27,2013-11-01 07:41:00,
2013-11-01 03:42:00,42.6,42.3,29.10,North,350,0.0,0.0,99,0.05,,,0.18,0,WeatherCatV1.21B27,2013-11-01 07:42:00,
2013-11-01 03:43:00,42.7,42.4,29.10,North,350,0.0,0.0,99,0.05,,,0.18,0,WeatherCatV1.21B27,2013-11-01 07:43:00,
2013-11-01 03:45:00,42.7,42.4,29.10,North,350,0.0,0.0,99,0.05,,,0.18,0,WeatherCatV1.21B27,2013-11-01 07:45:00,
2013-11-01 03:46:00,42.7,42.4,29.10,North,350,0.0,0.0,99,0.05,,,0.18,0,WeatherCatV1.21B27,2013-11-01 07:46:00,
2013-11-01 03:47:00,42.7,42.4,29.10,North,350,0.0,0.0,99,0.05,,,0.18,0,WeatherCatV1.21B27,2013-11-01 07:47:00,
2013-11-01 03:49:00,42.7,42.4,29.10,North,350,0.0,0.0,99,0.05,,,0.19,0,WeatherCatV1.21B27,2013-11-01 07:49:00,
2013-11-01 03:51:00,42.7,42.4,29.10,North,350,0.0,0.0,99,0.05,,,0.19,0,WeatherCatV1.21B27,2013-11-01 07:51:00,
2013-11-01 03:52:00,42.7,42.4,29.10,North,350,0.0,0.0,99,0.05,,,0.19,0,WeatherCatV1.21B27,2013-11-01 07:52:00,
2013-11-01 03:54:00,42.8,42.5,29.10,North,350,0.0,0.0,99,0.05,,,0.19,0,WeatherCatV1.21B27,2013-11-01 07:54:00,
2013-11-01 03:56:00,42.8,42.5,29.09,North,350,0.0,0.0,99,0.05,,,0.19,0,WeatherCatV1.21B27,2013-11-01 07:56:00,
2013-11-01 03:57:00,42.8,42.5,29.09,North,350,0.0,0.0,99,0.05,,,0.19,0,WeatherCatV1.21B27,2013-11-01 07:57:00,
2013-11-01 03:58:00,42.8,42.5,29.09,North,350,0.0,0.0,99,0.05,,,0.19,0,WeatherCatV1.21B27,2013-11-01 07:58:00,
2013-11-01 03:59:00,42.9,42.6,29.09,North,350,0.0,0.0,99,0.05,,,0.19,0,WeatherCatV1.21B27,2013-11-01 07:59:00,
2013-11-01 04:01:00,42.9,42.6,29.09,North,350,0.0,0.0,99,0.05,,,0.20,0,WeatherCatV1.21B27,2013-11-01 08:01:00,
2013-11-01 04:02:00,42.9,42.6,29.09,North,350,0.0,0.0,99,0.05,,,0.20,0,WeatherCatV1.21B27,2013-11-01 08:02:00,
2013-11-01 04:03:00,42.9,42.6,29.09,North,350,0.0,0.0,99,0.05,,,0.20,0,WeatherCatV1.21B27,2013-11-01 08:03:00,
2013-11-01 04:04:00,43.0,42.7,29.09,North,350,0.0,0.0,99,0.05,,,0.20,0,WeatherCatV1.21B27,2013-11-01 08:04:00,
2013-11-01 04:07:00,43.0,42.7,29.09,North,350,0.0,0.0,99,0.05,,,0.20,0,WeatherCatV1.21B27,2013-11-01 08:07:00,
2013-11-01 04:08:00,43.0,42.7,29.09,North,350,0.0,0.0,99,0.05,,,0.20,0,WeatherCatV1.21B27,2013-11-01 08:08:00,
2013-11-01 04:10:00,43.1,42.8,29.08,North,350,0.0,0.0,99,0.05,,,0.20,0,WeatherCatV1.21B27,2013-11-01 08:10:00,
2013-11-01 04:12:00,43.1,42.8,29.08,North,350,0.0,0.0,99,0.05,,,0.20,0,WeatherCatV1.21B27,2013-11-01 08:12:00,
2013-11-01 04:13:00,43.1,42.8,29.08,North,350,0.0,0.0,99,0.05,,,0.20,0,WeatherCatV1.21B27,2013-11-01 08:13:00,
2013-11-01 04:15:00,43.2,42.9,29.08,North,350,0.0,0.0,99,0.04,,,0.20,0,WeatherCatV1.21B27,2013-11-01 08:15:00,
2013-11-01 04:17:00,43.2,42.9,29.08,North,350,0.0,0.0,99,0.04,,,0.20,0,WeatherCatV1.21B27,2013-11-01 08:17:00,
2013-11-01 04:18:00,43.2,42.9,29.08,North,350,0.0,0.0,99,0.04,,,0.21,0,WeatherCatV1.21B27,2013-11-01 08:18:00,
2013-11-01 04:20:00,43.3,43.0,29.08,North,350,0.0,0.0,99,0.04,,,0.21,0,WeatherCatV1.21B27,2013-11-01 08:20:00,
2013-11-01 04:22:00,43.3,43.0,29.08,North,350,0.0,0.0,99,0.04,,,0.21,0,WeatherCatV1.21B27,2013-11-01 08:22:00,
2013-11-01 04:23:00,43.4,43.1,29.08,North,350,0.0,0.0,99,0.04,,,0.21,0,WeatherCatV1.21B27,2013-11-01 08:23:00,
2013-11-01 04:27:00,43.4,43.1,29.08,North,350,0.0,0.0,99,0.07,,,0.22,0,WeatherCatV1.21B27,2013-11-01 08:27:00,
2013-11-01 04:28:00,43.5,43.2,29.08,North,350,0.0,0.0,99,0.07,,,0.22,0,WeatherCatV1.21B27,2013-11-01 08:28:00,
2013-11-01 04:29:00,43.5,43.2,29.08,North,350,0.0,1.0,99,0.07,,,0.22,0,WeatherCatV1.21B27,2013-11-01 08:29:00,
2013-11-01 04:32:00,43.6,43.3,29.08,North,350,0.0,0.0,99,0.07,,,0.22,0,WeatherCatV1.21B27,2013-11-01 08:32:00,
2013-11-01 04:33:00,43.6,43.3,29.08,North,350,0.0,0.0,99,0.07,,,0.22,0,WeatherCatV1.21B27,2013-11-01 08:33:00,
2013-11-01 04:34:00,43.6,43.3,29.07,North,350,0.0,0.0,99,0.07,,,0.22,0,WeatherCatV1.21B27,2013-11-01 08:34:00,
2013-11-01 04:37:00,43.7,43.4,29.07,North,350,0.0,0.0,99,0.05,,,0.22,0,WeatherCatV1.21B27,2013-11-01 08:37:00,
2013-11-01 04:38:00,43.7,43.4,29.06,North,350,0.0,0.0,99,0.05,,,0.22,0,WeatherCatV1.21B27,2013-11-01 08:38:00,
2013-11-01 04:39:00,43.7,43.4,29.06,North,350,0.0,0.0,99,0.05,,,0.22,0,WeatherCatV1.21B27,2013-11-01 08:39:00,
2013-11-01 04:40:00,43.8,43.5,29.06,North,350,0.0,0.0,99,0.05,,,0.22,0,WeatherCatV1.21B27,2013-11-01 08:40:00,
2013-11-01 04:43:00,43.9,43.6,29.07,WSW,258,2.0,2.0,99,0.04,,,0.22,0,WeatherCatV1.21B27,2013-11-01 08:43:00,
2013-11-01 04:44:00,43.9,43.6,29.07,WSW,258,0.0,2.0,99,0.00,,,0.22,0,WeatherCatV1.21B27,2013-11-01 08:44:00,
2013-11-01 04:45:00,43.9,43.6,29.06,WSW,258,0.0,0.0,99,0.00,,,0.22,0,WeatherCatV1.21B27,2013-11-01 08:45:00,
2013-11-01 04:48:00,44.1,43.8,29.06,WSW,258,0.0,1.0,99,0.00,,,0.23,0,WeatherCatV1.21B27,2013-11-01 08:48:00,
2013-11-01 04:49:00,44.1,43.8,29.06,WSW,258,0.0,1.0,99,0.00,,,0.23,0,WeatherCatV1.21B27,2013-11-01 08:49:00,
2013-11-01 04:50:00,44.1,43.8,29.06,WSW,258,0.0,1.0,99,0.00,,,0.23,0,WeatherCatV1.21B27,2013-11-01 08:50:00,
2013-11-01 04:53:00,44.3,44.0,29.06,WSW,258,0.0,0.0,99,0.00,,,0.23,0,WeatherCatV1.21B27,2013-11-01 08:53:00,
2013-11-01 04:54:00,44.4,44.1,29.06,WSW,258,0.0,1.0,99,0.00,,,0.23,0,WeatherCatV1.21B27,2013-11-01 08:54:00,
2013-11-01 04:55:00,44.4,44.1,29.05,WSW,258,0.0,1.0,99,0.00,,,0.23,0,WeatherCatV1.21B27,2013-11-01 08:55:00,
2013-11-01 04:56:00,44.5,44.2,29.05,WSW,258,0.0,1.0,99,0.00,,,0.23,0,WeatherCatV1.21B27,2013-11-01 08:56:00,
2013-11-01 04:58:00,44.7,44.4,29.05,WSW,258,0.0,0.0,99,0.00,,,0.23,0,WeatherCatV1.21B27,2013-11-01 08:58:00,
2013-11-01 04:59:00,44.7,44.4,29.05,WSW,258,0.0,0.0,99,0.00,,,0.23,0,WeatherCatV1.21B27,2013-11-01 08:59:00,
2013-11-01 05:00:00,44.8,44.5,29.05,WSW,258,0.0,0.0,99,0.00,,,0.23,0,WeatherCatV1.21B27,2013-11-01 09:00:00,
2013-11-01 05:01:00,44.9,44.6,29.05,WSW,258,0.0,0.0,99,0.04,,,0.24,0,WeatherCatV1.21B27,2013-11-01 09:01:00,
2013-11-01 05:03:00,45.0,44.7,29.05,WSW,258,0.0,0.0,99,0.04,,,0.24,0,WeatherCatV1.21B27,2013-11-01 09:03:00,
2013-11-01 05:05:00,45.0,44.7,29.05,WSW,258,0.0,0.0,99,0.04,,,0.24,0,WeatherCatV1.21B27,2013-11-01 09:05:00,
2013-11-01 05:06:00,45.0,44.7,29.05,WSW,258,0.0,0.0,99,0.04,,,0.24,0,WeatherCatV1.21B27,2013-11-01 09:06:00,
2013-11-01 05:08:00,45.1,44.8,29.06,WSW,258,0.0,0.0,99,0.04,,,0.24,0,WeatherCatV1.21B27,2013-11-01 09:08:00,
2013-11-01 05:10:00,45.2,44.9,29.06,WSW,258,0.0,0.0,99,0.04,,,0.24,0,WeatherCatV1.21B27,2013-11-01 09:10:00,
2013-11-01 05:11:00,45.2,44.9,29.06,WSW,258,0.0,0.0,99,0.04,,,0.24,0,WeatherCatV1.21B27,2013-11-01 09:11:00,
2013-11-01 05:12:00,45.3,45.0,29.04,WSW,258,0.0,0.0,99,0.04,,,0.24,0,WeatherCatV1.21B27,2013-11-01 09:12:00,
2013-11-01 05:13:00,45.3,45.0,29.05,WSW,258,1.0,1.0,99,0.04,,,0.24,0,WeatherCatV1.21B27,2013-11-01 09:13:00,
2013-11-01 05:16:00,45.5,45.2,29.06,WSW,258,0.0,1.0,99,0.04,,,0.24,0,WeatherCatV1.21B27,2013-11-01 09:16:00,
2013-11-01 05:17:00,45.6,45.3,29.05,WSW,258,0.0,1.0,99,0.00,,,0.24,0,WeatherCatV1.21B27,2013-11-01 09:17:00,
2013-11-01 05:18:00,45.7,45.4,29.05,WSW,258,0.0,0.0,99,0.00,,,0.25,0,WeatherCatV1.21B27,2013-11-01 09:18:00,
2013-11-01 05:21:00,45.8,45.5,29.05,WSW,258,0.0,1.0,99,0.00,,,0.25,0,WeatherCatV1.21B27,2013-11-01 09:21:00,
2013-11-01 05:22:00,45.9,45.6,29.05,WSW,258,1.0,1.0,99,0.00,,,0.25,0,WeatherCatV1.21B27,2013-11-01 09:22:00,
2013-11-01 05:23:00,46.0,45.7,29.05,SW,232,0.0,1.0,99,0.00,,,0.25,0,WeatherCatV1.21B27,2013-11-01 09:23:00,
2013-11-01 05:24:00,46.0,45.7,29.05,SW,232,1.0,1.0,99,0.00,,,0.25,0,WeatherCatV1.21B27,2013-11-01 09:24:00,
2013-11-01 05:26:00,46.2,45.9,29.05,SW,232,0.0,0.0,99,0.00,,,0.25,0,WeatherCatV1.21B27,2013-11-01 09:26:00,
2013-11-01 05:27:00,46.4,46.1,29.04,SW,232,1.0,1.0,99,0.00,,,0.25,0,WeatherCatV1.21B27,2013-11-01 09:27:00,
2013-11-01 05:28:00,46.5,46.2,29.05,SW,232,0.0,1.0,99,0.06,,,0.26,0,WeatherCatV1.21B27,2013-11-01 09:28:00,
2013-11-01 05:29:00,46.5,46.2,29.04,SW,232,0.0,1.0,99,0.06,,,0.26,0,WeatherCatV1.21B27,2013-11-01 09:29:00,
2013-11-01 05:31:00,46.8,46.5,29.05,SW,232,0.0,0.0,99,0.06,,,0.26,0,WeatherCatV1.21B27,2013-11-01 09:31:00,
2013-11-01 05:32:00,47.0,46.7,29.04,SW,232,0.0,1.0,99,0.06,,,0.26,0,WeatherCatV1.21B27,2013-11-01 09:32:00,
2013-11-01 05:33:00,47.2,46.9,29.04,SW,232,0.0,1.0,99,0.06,,,0.26,0,WeatherCatV1.21B27,2013-11-01 09:33:00,
2013-11-01 05:34:00,47.3,47.0,29.04,SW,232,0.0,1.0,99,0.06,,,0.26,0,WeatherCatV1.21B27,2013-11-01 09:34:00,
2013-11-01 05:36:00,47.8,47.5,29.04,SW,232,0.0,1.0,99,0.06,,,0.26,0,WeatherCatV1.21B27,2013-11-01 09:36:00,
2013-11-01 05:37:00,48.1,47.8,29.04,SW,232,1.0,1.0,99,0.06,,,0.26,0,WeatherCatV1.21B27,2013-11-01 09:37:00,
2013-11-01 05:39:00,48.4,48.1,29.04,SW,232,0.0,1.0,99,0.05,,,0.26,0,WeatherCatV1.21B27,2013-11-01 09:39:00,
2013-11-01 05:41:00,48.8,48.5,29.03,SW,232,0.0,0.0,99,0.04,,,0.26,0,WeatherCatV1.21B27,2013-11-01 09:41:00,
2013-11-01 05:42:00,49.0,48.7,29.03,SW,232,0.0,1.0,99,0.04,,,0.26,0,WeatherCatV1.21B27,2013-11-01 09:42:00,
2013-11-01 05:43:00,49.1,48.8,29.03,SW,232,0.0,1.0,99,0.04,,,0.26,0,WeatherCatV1.21B27,2013-11-01 09:43:00,
2013-11-01 05:44:00,49.3,49.0,29.03,SW,232,0.0,0.0,99,0.04,,,0.26,0,WeatherCatV1.21B27,2013-11-01 09:44:00,
2013-11-01 05:46:00,49.7,49.4,29.03,SW,232,1.0,1.0,99,0.00,,,0.27,0,WeatherCatV1.21B27,2013-11-01 09:46:00,
2013-11-01 05:47:00,49.9,49.6,29.03,SW,232,0.0,1.0,99,0.00,,,0.27,0,WeatherCatV1.21B27,2013-11-01 09:47:00,
2013-11-01 05:48:00,49.9,49.6,29.03,SW,232,1.0,1.0,99,0.00,,,0.27,0,WeatherCatV1.21B27,2013-11-01 09:48:00,
2013-11-01 05:49:00,50.1,49.8,29.04,SW,232,0.0,1.0,99,0.00,,,0.27,0,WeatherCatV1.21B27,2013-11-01 09:49:00,
2013-11-01 05:50:00,50.1,49.8,29.04,SW,232,0.0,1.0,99,0.00,,,0.27,0,WeatherCatV1.21B27,2013-11-01 09:50:00,
2013-11-01 05:51:00,50.4,50.1,29.04,SW,232,0.0,1.0,99,0.00,,,0.27,0,WeatherCatV1.21B27,2013-11-01 09:51:00,
2013-11-01 05:53:00,50.5,50.5,29.03,SW,232,0.0,0.0,100,0.00,,,0.27,0,WeatherCatV1.21B27,2013-11-01 09:53:00,
2013-11-01 05:55:00,50.7,50.4,29.03,SW,232,0.0,0.0,99,0.00,,,0.27,0,WeatherCatV1.21B27,2013-11-01 09:55:00,
2013-11-01 05:57:00,50.9,50.6,29.03,SW,232,0.0,0.0,99,0.00,,,0.27,0,WeatherCatV1.21B27,2013-11-01 09:57:00,
2013-11-01 05:58:00,51.0,50.7,29.03,SW,232,0.0,1.0,99,0.00,,,0.27,0,WeatherCatV1.21B27,2013-11-01 09:58:00,
2013-11-01 06:00:00,51.1,51.1,29.03,SW,232,0.0,0.0,100,0.00,,,0.27,0,WeatherCatV1.21B27,2013-11-01 10:00:00,
2013-11-01 06:01:00,51.2,51.2,29.03,SW,232,0.0,0.0,100,0.00,,,0.27,0,WeatherCatV1.21B27,2013-11-01 10:01:00,
2013-11-01 06:02:00,51.2,51.2,29.03,SW,232,0.0,0.0,100,0.00,,,0.27,0,WeatherCatV1.21B27,2013-11-01 10:02:00,
2013-11-01 06:03:00,51.2,51.2,29.03,SW,232,0.0,1.0,100,0.00,,,0.27,0,WeatherCatV1.21B27,2013-11-01 10:03:00,
2013-11-01 06:04:00,51.3,51.0,29.03,SW,232,0.0,1.0,99,0.00,,,0.27,0,WeatherCatV1.21B27,2013-11-01 10:04:00,
2013-11-01 06:05:00,51.3,51.0,29.03,SW,232,0.0,1.0,99,0.00,,,0.27,0,WeatherCatV1.21B27,2013-11-01 10:05:00,
2013-11-01 06:06:00,51.4,51.1,29.03,SW,232,0.0,0.0,99,0.00,,,0.27,0,WeatherCatV1.21B27,2013-11-01 10:06:00,
2013-11-01 06:07:00,51.4,51.1,29.03,SW,232,0.0,0.0,99,0.00,,,0.27,0,WeatherCatV1.21B27,2013-11-01 10:07:00,
2013-11-01 06:08:00,51.4,51.1,29.03,SW,232,0.0,0.0,99,0.00,,,0.27,0,WeatherCatV1.21B27,2013-11-01 10:08:00,
2013-11-01 06:09:00,51.4,51.1,29.04,SW,232,0.0,0.0,99,0.00,,,0.27,0,WeatherCatV1.21B27,2013-11-01 10:09:00,
2013-11-01 06:10:00,51.5,51.2,29.03,SW,232,0.0,0.0,99,0.00,,,0.27,0,WeatherCatV1.21B27,2013-11-01 10:10:00,
2013-11-01 06:12:00,51.5,51.2,29.03,SW,232,0.0,1.0,99,0.00,,,0.27,0,WeatherCatV1.21B27,2013-11-01 10:12:00,
2013-11-01 06:13:00,51.6,51.6,29.03,SW,232,1.0,1.0,100,0.00,,,0.27,0,WeatherCatV1.21B27,2013-11-01 10:13:00,
2013-11-01 06:14:00,51.6,51.6,29.02,SW,232,0.0,1.0,100,0.00,,,0.28,0,WeatherCatV1.21B27,2013-11-01 10:14:00,
2013-11-01 06:15:00,51.7,51.7,29.02,SW,232,0.0,1.0,100,0.00,,,0.28,0,WeatherCatV1.21B27,2013-11-01 10:15:00,
2013-11-01 06:17:00,51.8,51.8,29.02,SW,232,0.0,0.0,100,0.00,,,0.28,0,WeatherCatV1.21B27,2013-11-01 10:17:00,
2013-11-01 06:18:00,51.8,51.8,29.02,SW,232,0.0,0.0,100,0.00,,,0.28,0,WeatherCatV1.21B27,2013-11-01 10:18:00,
2013-11-01 06:19:00,51.9,51.9,29.02,SW,232,0.0,1.0,100,0.00,,,0.28,0,WeatherCatV1.21B27,2013-11-01 10:19:00,
2013-11-01 06:21:00,51.9,51.6,29.02,SW,232,0.0,0.0,99,0.00,,,0.28,0,WeatherCatV1.21B27,2013-11-01 10:21:00,
2013-11-01 06:23:00,52.0,51.7,29.01,SW,232,0.0,0.0,99,0.00,,,0.28,0,WeatherCatV1.21B27,2013-11-01 10:23:00,
2013-11-01 06:24:00,52.1,51.8,29.02,SW,232,0.0,0.0,99,0.00,,,0.28,0,WeatherCatV1.21B27,2013-11-01 10:24:00,
2013-11-01 06:25:00,52.1,51.8,29.02,SW,232,0.0,0.0,99,0.00,,,0.28,0,WeatherCatV1.21B27,2013-11-01 10:25:00,
2013-11-01 06:26:00,52.2,51.9,29.02,SW,232,1.0,1.0,99,0.00,,,0.28,0,WeatherCatV1.21B27,2013-11-01 10:26:00,
2013-11-01 06:28:00,52.2,52.2,29.01,SW,232,0.0,0.0,100,0.00,,,0.28,0,WeatherCatV1.21B27,2013-11-01 10:28:00,
2013-11-01 06:29:00,52.3,52.3,29.01,SW,232,0.0,1.0,100,0.00,,,0.28,0,WeatherCatV1.21B27,2013-11-01 10:29:00,
2013-11-01 06:30:00,52.3,52.3,29.01,SW,232,0.0,1.0,100,0.00,,,0.28,0,WeatherCatV1.21B27,2013-11-01 10:30:00,
2013-11-01 06:31:00,52.4,52.4,29.01,SW,232,0.0,1.0,100,0.00,,,0.28,0,WeatherCatV1.21B27,2013-11-01 10:31:00,
2013-11-01 06:32:00,52.4,52.4,29.01,SW,232,0.0,1.0,100,0.00,,,0.28,0,WeatherCatV1.21B27,2013-11-01 10:32:00,
2013-11-01 06:33:00,52.4,52.4,29.01,SW,232,0.0,1.0,100,0.00,,,0.28,0,WeatherCatV1.21B27,2013-11-01 10:33:00,
2013-11-01 06:34:00,52.4,52.4,29.01,SW,232,0.0,1.0,100,0.00,,,0.28,0,WeatherCatV1.21B27,2013-11-01 10:34:00,
2013-11-01 06:35:00,52.5,52.2,29.01,SW,232,0.0,0.0,99,0.00,,,0.28,0,WeatherCatV1.21B27,2013-11-01 10:35:00,
2013-11-01 06:36:00,52.6,52.3,29.01,SW,232,0.0,0.0,99,0.00,,,0.28,0,WeatherCatV1.21B27,2013-11-01 10:36:00,
2013-11-01 06:37:00,52.6,52.3,29.01,SW,232,0.0,0.0,99,0.00,,,0.28,0,WeatherCatV1.21B27,2013-11-01 10:37:00,
2013-11-01 06:38:00,52.6,52.3,29.01,SW,232,0.0,1.0,99,0.00,,,0.28,0,WeatherCatV1.21B27,2013-11-01 10:38:00,
2013-11-01 06:39:00,52.6,52.3,29.01,SW,232,0.0,1.0,99,0.00,,,0.28,0,WeatherCatV1.21B27,2013-11-01 10:39:00,
2013-11-01 06:40:00,52.6,52.3,29.01,SW,232,0.0,1.0,99,0.00,,,0.28,0,WeatherCatV1.21B27,2013-11-01 10:40:00,
2013-11-01 06:41:00,52.7,52.4,29.01,SW,232,0.0,1.0,99,0.00,,,0.28,0,WeatherCatV1.21B27,2013-11-01 10:41:00,
2013-11-01 06:42:00,52.7,52.4,29.01,SW,232,0.0,0.0,99,0.00,,,0.29,0,WeatherCatV1.21B27,2013-11-01 10:42:00,
2013-11-01 06:43:00,52.8,52.5,29.00,SW,232,0.0,0.0,99,0.00,,,0.29,0,WeatherCatV1.21B27,2013-11-01 10:43:00,
2013-11-01 06:44:00,52.8,52.5,29.00,SW,232,0.0,0.0,99,0.00,,,0.29,0,WeatherCatV1.21B27,2013-11-01 10:44:00,
2013-11-01 06:45:00,52.8,52.5,29.00,SW,232,0.0,1.0,99,0.00,,,0.29,0,WeatherCatV1.21B27,2013-11-01 10:45:00,
2013-11-01 06:46:00,52.8,52.8,29.00,SW,232,0.0,0.0,100,0.00,,,0.29,0,WeatherCatV1.21B27,2013-11-01 10:46:00,
2013-11-01 06:48:00,52.9,52.9,29.00,SSW,194,0.0,1.0,100,0.00,,,0.29,0,WeatherCatV1.21B27,2013-11-01 10:48:00,
2013-11-01 06:49:00,53.0,53.0,29.00,SSW,194,0.0,1.0,100,0.00,,,0.29,0,WeatherCatV1.21B27,2013-11-01 10:49:00,
2013-11-01 06:50:00,53.0,53.0,29.00,SSW,194,0.0,1.0,100,0.00,,,0.29,0,WeatherCatV1.21B27,2013-11-01 10:50:00,
2013-11-01 06:52:00,53.1,53.1,28.99,SSW,194,1.0,1.0,100,0.00,,,0.29,0,WeatherCatV1.21B27,2013-11-01 10:52:00,
2013-11-01 06:53:00,53.2,53.2,28.99,SSW,194,1.0,1.0,100,0.00,,,0.29,0,WeatherCatV1.21B27,2013-11-01 10:53:00,
2013-11-01 06:54:00,53.2,53.2,28.99,SSE,167,0.0,2.0,100,0.00,,,0.29,0,WeatherCatV1.21B27,2013-11-01 10:54:00,
2013-11-01 06:55:00,53.3,53.3,28.99,SSW,203,2.0,2.0,100,0.05,,,0.30,0,WeatherCatV1.21B27,2013-11-01 10:55:00,
2013-11-01 06:57:00,53.6,53.6,28.99,SSE,161,0.0,3.0,100,0.05,,,0.30,0,WeatherCatV1.21B27,2013-11-01 10:57:00,
2013-11-01 06:58:00,53.7,53.7,28.99,SSE,161,1.0,3.0,100,0.05,,,0.30,0,WeatherCatV1.21B27,2013-11-01 10:58:00,
2013-11-01 06:59:00,53.7,53.7,28.99,South,187,0.0,3.0,100,0.05,,,0.30,0,WeatherCatV1.21B27,2013-11-01 10:59:00,
2013-11-01 07:00:00,54.0,54.0,28.99,South,173,0.0,2.0,100,0.05,,,0.30,0,WeatherCatV1.21B27,2013-11-01 11:00:00,
2013-11-01 07:02:00,54.2,54.2,28.99,South,173,0.0,2.0,100,0.05,,,0.30,0,WeatherCatV1.21B27,2013-11-01 11:02:00,
2013-11-01 07:03:00,54.3,54.3,28.99,South,182,0.0,3.0,100,0.05,,,0.30,0,WeatherCatV1.21B27,2013-11-01 11:03:00,
2013-11-01 07:04:00,54.4,54.4,28.99,South,182,0.0,3.0,100,0.05,,,0.30,0,WeatherCatV1.21B27,2013-11-01 11:04:00,
2013-11-01 07:05:00,54.5,54.5,28.99,South,182,1.0,1.0,100,0.05,,,0.30,0,WeatherCatV1.21B27,2013-11-01 11:05:00,
2013-11-01 07:06:00,54.6,54.6,28.99,South,182,0.0,2.0,100,0.05,,,0.30,0,WeatherCatV1.21B27,2013-11-01 11:06:00,
2013-11-01 07:07:00,54.7,54.7,28.99,South,182,0.0,1.0,100,0.05,,,0.30,0,WeatherCatV1.21B27,2013-11-01 11:07:00,
2013-11-01 07:08:00,54.7,54.7,28.99,South,179,0.0,1.0,100,0.04,,,0.30,0,WeatherCatV1.21B27,2013-11-01 11:08:00,
2013-11-01 07:09:00,54.8,54.8,28.99,South,179,0.0,0.0,100,0.04,,,0.30,0,WeatherCatV1.21B27,2013-11-01 11:09:00,
2013-11-01 07:10:00,54.9,54.9,28.99,South,179,0.0,0.0,100,0.04,,,0.30,0,WeatherCatV1.21B27,2013-11-01 11:10:00,
2013-11-01 07:11:00,54.9,54.9,28.99,South,179,0.0,1.0,100,0.04,,,0.30,0,WeatherCatV1.21B27,2013-11-01 11:11:00,
2013-11-01 07:13:00,54.9,54.9,28.99,South,179,0.0,1.0,100,0.00,,,0.30,0,WeatherCatV1.21B27,2013-11-01 11:13:00,
2013-11-01 07:14:00,55.0,55.0,28.99,South,179,1.0,1.0,100,0.00,,,0.30,0,WeatherCatV1.21B27,2013-11-01 11:14:00,
2013-11-01 07:15:00,55.0,55.0,28.99,South,179,0.0,1.0,100,0.00,,,0.30,0,WeatherCatV1.21B27,2013-11-01 11:15:00,
2013-11-01 07:16:00,55.0,55.0,28.99,South,179,0.0,1.0,100,0.00,,,0.30,0,WeatherCatV1.21B27,2013-11-01 11:16:00,
2013-11-01 07:18:00,55.0,55.0,28.99,South,179,0.0,0.0,100,0.00,,,0.30,0,WeatherCatV1.21B27,2013-11-01 11:18:00,
2013-11-01 07:20:00,54.9,54.9,28.99,South,179,0.0,1.0,100,0.00,,,0.31,0,WeatherCatV1.21B27,2013-11-01 11:20:00,
2013-11-01 07:21:00,54.9,54.9,28.99,South,179,0.0,0.0,100,0.00,,,0.31,0,WeatherCatV1.21B27,2013-11-01 11:21:00,
2013-11-01 07:22:00,54.9,54.9,28.99,South,179,0.0,1.0,100,0.00,,,0.31,0,WeatherCatV1.21B27,2013-11-01 11:22:00,
2013-11-01 07:24:00,54.9,54.9,28.99,South,179,0.0,1.0,100,0.00,,,0.31,0,WeatherCatV1.21B27,2013-11-01 11:24:00,
2013-11-01 07:25:00,54.9,54.9,28.99,South,179,0.0,1.0,100,0.00,,,0.31,0,WeatherCatV1.21B27,2013-11-01 11:25:00,
2013-11-01 07:26:00,54.9,54.9,28.99,South,179,0.0,0.0,100,0.00,,,0.31,0,WeatherCatV1.21B27,2013-11-01 11:26:00,
2013-11-01 07:27:00,55.0,55.0,28.99,South,179,0.0,0.0,100,0.00,,,0.31,0,WeatherCatV1.21B27,2013-11-01 11:27:00,
2013-11-01 07:29:00,55.0,55.0,28.99,South,179,0.0,0.0,100,0.00,,,0.31,0,WeatherCatV1.21B27,2013-11-01 11:29:00,
2013-11-01 07:30:00,55.0,55.0,28.99,South,179,0.0,0.0,100,0.00,,,0.31,0,WeatherCatV1.21B27,2013-11-01 11:30:00,
2013-11-01 07:32:00,55.0,55.0,28.99,South,179,0.0,0.0,100,0.00,,,0.31,0,WeatherCatV1.21B27,2013-11-01 11:32:00,
2013-11-01 07:34:00,55.0,55.0,28.99,South,179,0.0,0.0,100,0.00,,,0.31,0,WeatherCatV1.21B27,2013-11-01 11:34:00,
2013-11-01 07:35:00,55.0,55.0,28.99,South,179,0.0,0.0,100,0.00,,,0.31,0,WeatherCatV1.21B27,2013-11-01 11:35:00,
2013-11-01 07:37:00,55.0,55.0,28.99,South,179,0.0,1.0,100,0.00,,,0.31,0,WeatherCatV1.21B27,2013-11-01 11:37:00,
2013-11-01 07:39:00,55.1,55.1,28.99,South,179,0.0,0.0,100,0.00,,,0.32,0,WeatherCatV1.21B27,2013-11-01 11:39:00,
2013-11-01 07:40:00,55.1,55.1,28.99,South,179,0.0,0.0,100,0.00,,,0.32,0,WeatherCatV1.21B27,2013-11-01 11:40:00,
2013-11-01 07:42:00,55.1,55.1,28.98,South,179,0.0,1.0,100,0.00,,,0.32,0,WeatherCatV1.21B27,2013-11-01 11:42:00,
2013-11-01 07:43:00,55.1,55.1,28.98,South,179,0.0,1.0,100,0.00,,,0.32,0,WeatherCatV1.21B27,2013-11-01 11:43:00,
2013-11-01 07:44:00,55.2,55.2,28.98,South,179,0.0,0.0,100,0.00,,,0.32,0,WeatherCatV1.21B27,2013-11-01 11:44:00,
2013-11-01 07:45:00,55.2,55.2,28.98,South,179,0.0,1.0,100,0.00,,,0.32,0,WeatherCatV1.21B27,2013-11-01 11:45:00,
2013-11-01 07:47:00,55.3,55.3,28.98,South,179,0.0,0.0,100,0.00,,,0.32,0,WeatherCatV1.21B27,2013-11-01 11:47:00,
2013-11-01 07:48:00,55.3,55.3,28.99,South,179,0.0,0.0,100,0.00,,,0.32,0,WeatherCatV1.21B27,2013-11-01 11:48:00,
2013-11-01 07:49:00,55.4,55.4,28.99,South,179,0.0,1.0,100,0.00,,,0.32,0,WeatherCatV1.21B27,2013-11-01 11:49:00,
2013-11-01 07:50:00,55.4,55.4,28.98,South,179,0.0,1.0,100,0.00,,,0.32,0,WeatherCatV1.21B27,2013-11-01 11:50:00,
2013-11-01 07:52:00,55.6,55.6,28.98,South,179,0.0,0.0,100,0.00,,,0.32,0,WeatherCatV1.21B27,2013-11-01 11:52:00,
2013-11-01 07:53:00,55.6,55.6,28.99,South,179,0.0,0.0,100,0.00,,,0.32,0,WeatherCatV1.21B27,2013-11-01 11:53:00,
2013-11-01 07:55:00,55.6,55.6,28.99,South,179,0.0,1.0,100,0.04,,,0.33,0,WeatherCatV1.21B27,2013-11-01 11:55:00,
2013-11-01 07:56:00,55.7,55.7,28.99,South,179,0.0,1.0,100,0.04,,,0.33,0,WeatherCatV1.21B27,2013-11-01 11:56:00,
2013-11-01 07:58:00,55.7,55.7,28.98,South,179,0.0,0.0,100,0.04,,,0.33,5,WeatherCatV1.21B27,2013-11-01 11:58:00,
2013-11-01 07:59:00,55.8,55.8,28.98,South,179,0.0,0.0,100,0.04,,,0.33,0,WeatherCatV1.21B27,2013-11-01 11:59:00,
2013-11-01 08:00:00,55.8,55.8,28.98,South,179,0.0,1.0,100,0.04,,,0.33,5,WeatherCatV1.21B27,2013-11-01 12:00:00,
2013-11-01 08:01:00,55.9,55.9,28.98,South,179,0.0,1.0,100,0.04,,,0.33,7,WeatherCatV1.21B27,2013-11-01 12:01:00,
2013-11-01 08:03:00,55.9,55.9,28.98,South,179,0.0,0.0,100,0.04,,,0.33,5,WeatherCatV1.21B27,2013-11-01 12:03:00,
2013-11-01 08:04:00,55.9,55.9,28.98,South,179,0.0,0.0,100,0.04,,,0.33,5,WeatherCatV1.21B27,2013-11-01 12:04:00,
2013-11-01 08:05:00,56.0,56.0,28.98,South,179,0.0,1.0,100,0.06,,,0.34,5,WeatherCatV1.21B27,2013-11-01 12:05:00,
2013-11-01 08:06:00,56.0,56.0,28.98,South,179,0.0,1.0,100,0.06,,,0.34,5,WeatherCatV1.21B27,2013-11-01 12:06:00,
2013-11-01 08:08:00,56.1,56.1,28.98,South,179,0.0,1.0,100,0.06,,,0.34,5,WeatherCatV1.21B27,2013-11-01 12:08:00,
2013-11-01 08:09:00,56.2,56.2,28.98,South,179,0.0,1.0,100,0.06,,,0.34,0,WeatherCatV1.21B27,2013-11-01 12:09:00,
2013-11-01 08:10:00,56.2,56.2,28.98,SSE,157,2.0,2.0,100,0.06,,,0.34,0,WeatherCatV1.21B27,2013-11-01 12:10:00,
2013-11-01 08:11:00,56.3,56.3,28.98,South,182,1.0,2.0,100,0.06,,,0.34,5,WeatherCatV1.21B27,2013-11-01 12:11:00,
2013-11-01 08:13:00,56.4,56.4,28.98,South,182,0.0,0.0,100,0.06,,,0.34,5,WeatherCatV1.21B27,2013-11-01 12:13:00,
2013-11-01 08:14:00,56.4,56.4,28.98,South,182,0.0,0.0,100,0.06,,,0.34,7,WeatherCatV1.21B27,2013-11-01 12:14:00,
2013-11-01 08:15:00,56.5,56.5,28.98,South,182,0.0,1.0,100,0.06,,,0.34,5,WeatherCatV1.21B27,2013-11-01 12:15:00,
2013-11-01 08:16:00,56.5,56.5,28.98,South,182,0.0,1.0,100,0.05,,,0.34,5,WeatherCatV1.21B27,2013-11-01 12:16:00,
2013-11-01 08:17:00,56.5,56.5,28.98,South,182,0.0,0.0,100,0.05,,,0.34,5,WeatherCatV1.21B27,2013-11-01 12:17:00,
2013-11-01 08:19:00,56.6,56.6,28.98,South,182,0.0,0.0,100,0.04,,,0.34,7,WeatherCatV1.21B27,2013-11-01 12:19:00,
2013-11-01 08:20:00,56.7,56.7,28.98,South,182,0.0,1.0,100,0.04,,,0.34,7,WeatherCatV1.21B27,2013-11-01 12:20:00,
2013-11-01 08:21:00,56.7,56.7,28.98,South,182,0.0,1.0,100,0.04,,,0.34,7,WeatherCatV1.21B27,2013-11-01 12:21:00,
2013-11-01 08:22:00,56.7,56.7,28.98,South,182,0.0,0.0,100,0.00,,,0.34,7,WeatherCatV1.21B27,2013-11-01 12:22:00,
2013-11-01 08:24:00,56.8,56.8,28.98,South,182,0.0,0.0,100,0.00,,,0.35,7,WeatherCatV1.21B27,2013-11-01 12:24:00,
2013-11-01 08:25:00,56.8,56.8,28.98,South,182,0.0,0.0,100,0.00,,,0.35,9,WeatherCatV1.21B27,2013-11-01 12:25:00,
2013-11-01 08:26:00,56.8,56.8,28.98,South,182,0.0,1.0,100,0.00,,,0.35,7,WeatherCatV1.21B27,2013-11-01 12:26:00,
2013-11-01 08:27:00,56.8,56.8,28.98,South,182,0.0,1.0,100,0.00,,,0.35,11,WeatherCatV1.21B27,2013-11-01 12:27:00,
2013-11-01 08:29:00,56.9,56.9,28.98,South,182,0.0,0.0,100,0.00,,,0.35,11,WeatherCatV1.21B27,2013-11-01 12:29:00,
2013-11-01 08:30:00,57.0,57.0,28.98,South,182,0.0,0.0,100,0.00,,,0.35,11,WeatherCatV1.21B27,2013-11-01 12:30:00,
2013-11-01 08:31:00,57.0,57.0,28.98,South,182,0.0,0.0,100,0.00,,,0.35,11,WeatherCatV1.21B27,2013-11-01 12:31:00,
2013-11-01 08:32:00,57.0,57.0,28.98,South,182,0.0,0.0,100,0.00,,,0.35,7,WeatherCatV1.21B27,2013-11-01 12:32:00,
2013-11-01 08:35:00,57.1,57.1,28.97,South,182,0.0,0.0,100,0.00,,,0.35,11,WeatherCatV1.21B27,2013-11-01 12:35:00,
2013-11-01 08:36:00,57.1,57.1,28.97,South,182,0.0,0.0,100,0.00,,,0.35,9,WeatherCatV1.21B27,2013-11-01 12:36:00,
2013-11-01 08:37:00,57.2,57.2,28.98,SSW,195,1.0,3.0,100,0.00,,,0.35,7,WeatherCatV1.21B27,2013-11-01 12:37:00,
2013-11-01 08:40:00,57.3,57.3,28.97,SSW,195,0.0,0.0,100,0.04,,,0.36,12,WeatherCatV1.21B27,2013-11-01 12:40:00,
2013-11-01 08:41:00,57.3,57.3,28.97,SSW,195,0.0,1.0,100,0.04,,,0.36,14,WeatherCatV1.21B27,2013-11-01 12:41:00,
2013-11-01 08:42:00,57.3,57.3,28.97,SSW,195,0.0,1.0,100,0.04,,,0.36,12,WeatherCatV1.21B27,2013-11-01 12:42:00,
2013-11-01 08:45:00,57.5,57.5,28.97,South,178,0.0,1.0,100,0.04,,,0.36,12,WeatherCatV1.21B27,2013-11-01 12:45:00,
2013-11-01 08:46:00,57.5,57.5,28.97,South,178,0.0,2.0,100,0.04,,,0.36,12,WeatherCatV1.21B27,2013-11-01 12:46:00,
2013-11-01 08:47:00,57.6,57.6,28.97,South,178,0.0,2.0,100,0.04,,,0.36,16,WeatherCatV1.21B27,2013-11-01 12:47:00,
2013-11-01 08:48:00,57.6,57.6,28.97,South,178,1.0,1.0,100,0.04,,,0.36,12,WeatherCatV1.21B27,2013-11-01 12:48:00,
2013-11-01 08:50:00,57.7,57.7,28.97,South,175,0.0,1.0,100,0.05,,,0.37,7,WeatherCatV1.21B27,2013-11-01 12:50:00,
2013-11-01 08:51:00,57.7,57.7,28.97,South,175,0.0,1.0,100,0.05,,,0.37,12,WeatherCatV1.21B27,2013-11-01 12:51:00,
2013-11-01 08:52:00,57.8,57.8,28.97,SSE,168,0.0,1.0,100,0.05,,,0.37,12,WeatherCatV1.21B27,2013-11-01 12:52:00,
2013-11-01 08:53:00,57.8,57.8,28.97,SSE,168,0.0,0.0,100,0.05,,,0.37,9,WeatherCatV1.21B27,2013-11-01 12:53:00,
2013-11-01 08:55:00,57.9,57.9,28.97,SSE,168,0.0,0.0,100,0.05,,,0.37,7,WeatherCatV1.21B27,2013-11-01 12:55:00,
2013-11-01 08:56:00,57.9,57.9,28.97,SSE,167,0.0,1.0,100,0.05,,,0.37,7,WeatherCatV1.21B27,2013-11-01 12:56:00,
2013-11-01 08:57:00,57.9,57.9,28.97,SSE,167,1.0,1.0,100,0.05,,,0.37,7,WeatherCatV1.21B27,2013-11-01 12:57:00,
2013-11-01 08:58:00,58.0,58.0,28.97,South,179,0.0,1.0,100,0.05,,,0.37,7,WeatherCatV1.21B27,2013-11-01 12:58:00,
2013-11-01 09:00:00,58.0,58.0,28.97,South,179,0.0,1.0,100,0.05,,,0.37,5,WeatherCatV1.21B27,2013-11-01 13:00:00,
2013-11-01 09:01:00,58.0,58.0,28.97,South,179,0.0,1.0,100,0.05,,,0.37,9,WeatherCatV1.21B27,2013-11-01 13:01:00,
2013-11-01 09:02:00,58.1,58.1,28.97,South,179,0.0,1.0,100,0.05,,,0.37,9,WeatherCatV1.21B27,2013-11-01 13:02:00,
2013-11-01 09:03:00,58.1,58.1,28.96,South,179,0.0,0.0,100,0.05,,,0.38,7,WeatherCatV1.21B27,2013-11-01 13:03:00,
2013-11-01 09:04:00,58.1,58.1,28.96,South,179,0.0,1.0,100,0.05,,,0.38,9,WeatherCatV1.21B27,2013-11-01 13:04:00,
2013-11-01 09:06:00,58.2,58.2,28.96,South,171,0.0,3.0,100,0.05,,,0.38,9,WeatherCatV1.21B27,2013-11-01 13:06:00,
2013-11-01 09:07:00,58.2,58.2,28.96,South,171,0.0,1.0,100,0.05,,,0.38,11,WeatherCatV1.21B27,2013-11-01 13:07:00,
2013-11-01 09:09:00,58.3,58.3,28.96,South,171,0.0,1.0,100,0.05,,,0.38,12,WeatherCatV1.21B27,2013-11-01 13:09:00,
2013-11-01 09:11:00,58.3,58.3,28.96,South,171,0.0,1.0,100,0.08,,,0.39,14,WeatherCatV1.21B27,2013-11-01 13:11:00,
2013-11-01 09:12:00,58.3,58.3,28.96,South,171,0.0,1.0,100,0.08,,,0.39,16,WeatherCatV1.21B27,2013-11-01 13:12:00,
2013-11-01 09:13:00,58.3,58.3,28.96,South,171,1.0,1.0,100,0.08,,,0.39,14,WeatherCatV1.21B27,2013-11-01 13:13:00,
2013-11-01 09:14:00,58.3,58.3,28.96,South,171,0.0,1.0,100,0.08,,,0.39,14,WeatherCatV1.21B27,2013-11-01 13:14:00,
2013-11-01 09:16:00,58.3,58.3,28.96,South,171,0.0,1.0,100,0.10,,,0.39,11,WeatherCatV1.21B27,2013-11-01 13:16:00,
2013-11-01 09:17:00,58.4,58.4,28.95,South,171,0.0,1.0,100,0.10,,,0.40,14,WeatherCatV1.21B27,2013-11-01 13:17:00,
2013-11-01 09:18:00,58.4,58.4,28.95,South,170,0.0,1.0,100,0.10,,,0.40,14,WeatherCatV1.21B27,2013-11-01 13:18:00,
2013-11-01 09:19:00,58.4,58.4,28.95,South,170,0.0,1.0,100,0.10,,,0.40,14,WeatherCatV1.21B27,2013-11-01 13:19:00,
2013-11-01 09:21:00,58.4,58.4,28.95,South,170,0.0,1.0,100,0.10,,,0.40,12,WeatherCatV1.21B27,2013-11-01 13:21:00,
2013-11-01 09:22:00,58.4,58.4,28.95,South,170,0.0,0.0,100,0.10,,,0.40,11,WeatherCatV1.21B27,2013-11-01 13:22:00,
2013-11-01 09:23:00,58.4,58.4,28.95,South,170,0.0,1.0,100,0.09,,,0.40,11,WeatherCatV1.21B27,2013-11-01 13:23:00,
2013-11-01 09:24:00,58.4,58.4,28.95,South,170,0.0,1.0,100,0.07,,,0.40,9,WeatherCatV1.21B27,2013-11-01 13:24:00,
2013-11-01 09:27:00,58.5,58.5,28.95,SSW,208,1.0,1.0,100,0.06,,,0.40,5,WeatherCatV1.21B27,2013-11-01 13:27:00,
2013-11-01 09:28:00,58.5,58.5,28.95,SSW,208,0.0,0.0,100,0.05,,,0.40,5,WeatherCatV1.21B27,2013-11-01 13:28:00,
2013-11-01 09:29:00,58.5,58.5,28.95,SSW,201,0.0,1.0,100,0.05,,,0.40,5,WeatherCatV1.21B27,2013-11-01 13:29:00,
2013-11-01 09:30:00,58.5,58.5,28.95,SSW,201,0.0,1.0,100,0.04,,,0.40,0,WeatherCatV1.21B27,2013-11-01 13:30:00,
2013-11-01 09:32:00,58.6,58.6,28.95,SSW,201,0.0,0.0,100,0.04,,,0.40,5,WeatherCatV1.21B27,2013-11-01 13:32:00,
2013-11-01 09:33:00,58.6,58.6,28.95,South,184,0.0,2.0,100,0.00,,,0.40,5,WeatherCatV1.21B27,2013-11-01 13:33:00,
2013-11-01 09:34:00,58.6,58.6,28.94,South,184,0.0,2.0,100,0.00,,,0.40,5,WeatherCatV1.21B27,2013-11-01 13:34:00,
2013-11-01 09:35:00,58.6,58.6,28.94,South,184,0.0,0.0,100,0.00,,,0.40,0,WeatherCatV1.21B27,2013-11-01 13:35:00,
2013-11-01 09:37:00,58.7,58.7,28.95,South,184,0.0,0.0,100,0.00,,,0.41,5,WeatherCatV1.21B27,2013-11-01 13:37:00,
2013-11-01 09:39:00,58.6,58.6,28.95,South,184,0.0,0.0,100,0.00,,,0.41,7,WeatherCatV1.21B27,2013-11-01 13:39:00,
2013-11-01 09:40:00,58.7,58.7,28.95,South,184,0.0,0.0,100,0.00,,,0.41,7,WeatherCatV1.21B27,2013-11-01 13:40:00,
2013-11-01 09:41:00,58.7,58.7,28.94,South,184,0.0,0.0,100,0.00,,,0.41,7,WeatherCatV1.21B27,2013-11-01 13:41:00,
2013-11-01 09:42:00,58.7,58.7,28.94,South,184,0.0,0.0,100,0.00,,,0.41,5,WeatherCatV1.21B27,2013-11-01 13:42:00,
2013-11-01 09:44:00,58.7,58.7,28.94,South,184,0.0,0.0,100,0.00,,,0.41,5,WeatherCatV1.21B27,2013-11-01 13:44:00,
2013-11-01 09:45:00,58.7,58.7,28.94,South,184,0.0,0.0,100,0.00,,,0.41,11,WeatherCatV1.21B27,2013-11-01 13:45:00,
2013-11-01 09:47:00,58.7,58.7,28.94,South,184,0.0,1.0,100,0.00,,,0.41,11,WeatherCatV1.21B27,2013-11-01 13:47:00,
2013-11-01 09:48:00,58.7,58.7,28.94,South,184,0.0,1.0,100,0.00,,,0.41,11,WeatherCatV1.21B27,2013-11-01 13:48:00,
2013-11-01 09:50:00,58.7,58.7,28.94,South,184,0.0,1.0,100,0.00,,,0.41,9,WeatherCatV1.21B27,2013-11-01 13:50:00,
2013-11-01 09:52:00,58.7,58.7,28.94,South,184,0.0,0.0,100,0.00,,,0.41,5,WeatherCatV1.21B27,2013-11-01 13:52:00,
2013-11-01 09:53:00,58.7,58.7,28.94,South,184,0.0,1.0,100,0.00,,,0.41,5,WeatherCatV1.21B27,2013-11-01 13:53:00,
2013-11-01 09:55:00,58.7,58.7,28.94,South,184,0.0,1.0,100,0.00,,,0.41,5,WeatherCatV1.21B27,2013-11-01 13:55:00,
2013-11-01 09:57:00,58.8,58.8,28.94,South,184,0.0,0.0,100,0.00,,,0.41,7,WeatherCatV1.21B27,2013-11-01 13:57:00,
2013-11-01 09:58:00,58.8,58.8,28.94,South,184,0.0,1.0,100,0.00,,,0.41,7,WeatherCatV1.21B27,2013-11-01 13:58:00,
2013-11-01 10:00:00,58.8,58.8,28.93,South,184,0.0,0.0,100,0.00,,,0.41,7,WeatherCatV1.21B27,2013-11-01 14:00:00,
2013-11-01 10:01:00,58.9,58.9,28.93,South,184,0.0,0.0,100,0.00,,,0.41,7,WeatherCatV1.21B27,2013-11-01 14:01:00,
2013-11-01 10:02:00,58.9,58.9,28.93,South,184,0.0,1.0,100,0.00,,,0.41,5,WeatherCatV1.21B27,2013-11-01 14:02:00,
2013-11-01 10:03:00,58.9,58.9,28.93,South,184,0.0,1.0,100,0.00,,,0.41,5,WeatherCatV1.21B27,2013-11-01 14:03:00,
2013-11-01 10:05:00,58.9,58.9,28.93,South,184,0.0,0.0,100,0.00,,,0.41,5,WeatherCatV1.21B27,2013-11-01 14:05:00,
2013-11-01 10:06:00,58.9,58.9,28.93,South,184,0.0,0.0,100,0.00,,,0.41,5,WeatherCatV1.21B27,2013-11-01 14:06:00,
2013-11-01 10:08:00,58.9,58.9,28.93,South,184,0.0,1.0,100,0.00,,,0.41,9,WeatherCatV1.21B27,2013-11-01 14:08:00,
2013-11-01 10:09:00,59.0,59.0,28.93,SSE,163,0.0,2.0,100,0.00,,,0.41,11,WeatherCatV1.21B27,2013-11-01 14:09:00,
2013-11-01 10:10:00,59.0,59.0,28.92,SSE,163,0.0,2.0,100,0.00,,,0.41,14,WeatherCatV1.21B27,2013-11-01 14:10:00,
2013-11-01 10:11:00,59.0,59.0,28.92,SSE,163,0.0,1.0,100,0.00,,,0.41,14,WeatherCatV1.21B27,2013-11-01 14:11:00,
2013-11-01 10:13:00,59.0,59.0,28.92,SSE,163,0.0,1.0,100,0.00,,,0.41,14,WeatherCatV1.21B27,2013-11-01 14:13:00,
2013-11-01 10:15:00,59.0,59.0,28.92,SSE,163,0.0,0.0,100,0.00,,,0.41,9,WeatherCatV1.21B27,2013-11-01 14:15:00,
2013-11-01 10:16:00,59.0,59.0,28.92,SSE,163,0.0,0.0,100,0.00,,,0.41,9,WeatherCatV1.21B27,2013-11-01 14:16:00,
2013-11-01 10:18:00,59.0,59.0,28.92,SSE,163,0.0,0.0,100,0.00,,,0.41,7,WeatherCatV1.21B27,2013-11-01 14:18:00,
2013-11-01 10:20:00,59.0,59.0,28.92,SSE,163,0.0,0.0,100,0.00,,,0.41,7,WeatherCatV1.21B27,2013-11-01 14:20:00,
2013-11-01 10:21:00,59.0,59.0,28.92,SSE,163,0.0,0.0,100,0.00,,,0.41,7,WeatherCatV1.21B27,2013-11-01 14:21:00,
2013-11-01 10:23:00,59.0,59.0,28.92,SSE,163,0.0,0.0,100,0.00,,,0.41,7,WeatherCatV1.21B27,2013-11-01 14:23:00,
2013-11-01 10:25:00,59.0,59.0,28.92,SSE,163,0.0,1.0,100,0.00,,,0.41,7,WeatherCatV1.21B27,2013-11-01 14:25:00,
2013-11-01 10:26:00,59.0,59.0,28.92,SSE,163,0.0,1.0,100,0.00,,,0.42,5,WeatherCatV1.21B27,2013-11-01 14:26:00,
2013-11-01 10:28:00,59.0,59.0,28.92,SSE,163,0.0,0.0,100,0.00,,,0.42,0,WeatherCatV1.21B27,2013-11-01 14:28:00,
2013-11-01 10:29:00,59.0,59.0,28.92,SSE,163,0.0,0.0,100,0.00,,,0.42,0,WeatherCatV1.21B27,2013-11-01 14:29:00,
2013-11-01 10:30:00,59.0,59.0,28.92,SSE,163,0.0,0.0,100,0.00,,,0.42,5,WeatherCatV1.21B27,2013-11-01 14:30:00,
2013-11-01 10:31:00,59.0,59.0,28.91,SSE,163,0.0,0.0,100,0.00,,,0.42,5,WeatherCatV1.21B27,2013-11-01 14:31:00,
2013-11-01 10:32:00,59.0,59.0,28.91,SSE,163,0.0,0.0,100,0.00,,,0.42,7,WeatherCatV1.21B27,2013-11-01 14:32:00,
2013-11-01 10:33:00,59.0,59.0,28.91,SSE,163,0.0,1.0,100,0.00,,,0.42,9,WeatherCatV1.21B27,2013-11-01 14:33:00,
2013-11-01 10:34:00,59.0,59.0,28.91,SSE,163,0.0,0.0,100,0.00,,,0.42,9,WeatherCatV1.21B27,2013-11-01 14:34:00,
2013-11-01 10:35:00,59.1,59.1,28.91,SSE,163,0.0,0.0,100,0.00,,,0.42,9,WeatherCatV1.21B27,2013-11-01 14:35:00,
2013-11-01 10:36:00,59.0,59.0,28.91,SSE,163,0.0,0.0,100,0.00,,,0.42,9,WeatherCatV1.21B27,2013-11-01 14:36:00,
2013-11-01 10:37:00,59.1,59.1,28.91,SSE,163,0.0,0.0,100,0.00,,,0.42,11,WeatherCatV1.21B27,2013-11-01 14:37:00,
2013-11-01 10:38:00,59.1,59.1,28.91,SSE,163,0.0,0.0,100,0.00,,,0.42,9,WeatherCatV1.21B27,2013-11-01 14:38:00,
2013-11-01 10:40:00,59.1,59.1,28.90,SSE,163,0.0,0.0,100,0.00,,,0.42,9,WeatherCatV1.21B27,2013-11-01 14:40:00,
2013-11-01 10:41:00,59.1,59.1,28.90,SSE,163,0.0,1.0,100,0.00,,,0.42,7,WeatherCatV1.21B27,2013-11-01 14:41:00,
2013-11-01 10:42:00,59.0,59.0,28.90,SSE,163,0.0,1.0,100,0.00,,,0.42,5,WeatherCatV1.21B27,2013-11-01 14:42:00,
2013-11-01 10:43:00,59.1,59.1,28.90,SSE,159,0.0,1.0,100,0.00,,,0.42,7,WeatherCatV1.21B27,2013-11-01 14:43:00,
2013-11-01 10:45:00,59.1,59.1,28.90,SSE,159,0.0,0.0,100,0.00,,,0.42,7,WeatherCatV1.21B27,2013-11-01 14:45:00,
2013-11-01 10:46:00,59.1,59.1,28.90,SSE,159,0.0,1.0,100,0.00,,,0.42,7,WeatherCatV1.21B27,2013-11-01 14:46:00,
2013-11-01 10:47:00,59.1,59.1,28.90,SSE,159,0.0,1.0,100,0.00,,,0.42,5,WeatherCatV1.21B27,2013-11-01 14:47:00,
2013-11-01 10:49:00,59.1,59.1,28.90,SSE,159,0.0,0.0,100,0.00,,,0.43,0,WeatherCatV1.21B27,2013-11-01 14:49:00,
2013-11-01 10:50:00,59.2,59.2,28.90,SSE,159,0.0,0.0,100,0.00,,,0.43,0,WeatherCatV1.21B27,2013-11-01 14:50:00,
2013-11-01 10:51:00,59.2,59.2,28.90,SSE,159,0.0,0.0,100,0.00,,,0.43,5,WeatherCatV1.21B27,2013-11-01 14:51:00,
2013-11-01 10:52:00,59.2,59.2,28.90,SSE,159,0.0,0.0,100,0.00,,,0.43,7,WeatherCatV1.21B27,2013-11-01 14:52:00,
2013-11-01 10:53:00,59.2,59.2,28.90,SSE,159,0.0,0.0,100,0.00,,,0.43,7,WeatherCatV1.21B27,2013-11-01 14:53:00,
2013-11-01 10:54:00,59.2,59.2,28.90,SSE,159,0.0,0.0,100,0.00,,,0.43,9,WeatherCatV1.21B27,2013-11-01 14:54:00,
2013-11-01 10:55:00,59.2,59.2,28.89,SSE,159,0.0,0.0,100,0.00,,,0.43,11,WeatherCatV1.21B27,2013-11-01 14:55:00,
2013-11-01 10:56:00,59.2,59.2,28.90,SSE,159,0.0,0.0,100,0.00,,,0.43,12,WeatherCatV1.21B27,2013-11-01 14:56:00,
2013-11-01 10:57:00,59.2,59.2,28.90,SSE,159,0.0,0.0,100,0.00,,,0.43,12,WeatherCatV1.21B27,2013-11-01 14:57:00,
2013-11-01 10:58:00,59.2,59.2,28.90,SSE,159,0.0,0.0,100,0.00,,,0.43,14,WeatherCatV1.21B27,2013-11-01 14:58:00,
2013-11-01 10:59:00,59.2,59.2,28.89,SSE,159,0.0,1.0,100,0.00,,,0.43,11,WeatherCatV1.21B27,2013-11-01 14:59:00,
2013-11-01 11:00:00,59.3,59.3,28.89,SSE,167,0.0,1.0,100,0.00,,,0.43,14,WeatherCatV1.21B27,2013-11-01 15:00:00,
2013-11-01 11:02:00,59.3,59.3,28.89,South,171,1.0,1.0,100,0.00,,,0.43,11,WeatherCatV1.21B27,2013-11-01 15:02:00,
2013-11-01 11:03:00,59.3,59.3,28.89,South,171,0.0,1.0,100,0.00,,,0.43,9,WeatherCatV1.21B27,2013-11-01 15:03:00,
2013-11-01 11:04:00,59.4,59.4,28.89,South,171,0.0,0.0,100,0.00,,,0.43,7,WeatherCatV1.21B27,2013-11-01 15:04:00,
2013-11-01 11:06:00,59.4,59.4,28.88,South,171,0.0,0.0,100,0.00,,,0.43,9,WeatherCatV1.21B27,2013-11-01 15:06:00,
2013-11-01 11:07:00,59.4,59.4,28.88,South,171,0.0,0.0,100,0.00,,,0.43,11,WeatherCatV1.21B27,2013-11-01 15:07:00,
2013-11-01 11:08:00,59.5,59.5,28.88,South,171,0.0,1.0,100,0.00,,,0.43,12,WeatherCatV1.21B27,2013-11-01 15:08:00,
2013-11-01 11:09:00,59.5,59.5,28.88,South,171,0.0,1.0,100,0.00,,,0.43,12,WeatherCatV1.21B27,2013-11-01 15:09:00,
2013-11-01 11:12:00,59.5,59.5,28.88,South,171,0.0,0.0,100,0.00,,,0.44,14,WeatherCatV1.21B27,2013-11-01 15:12:00,
2013-11-01 11:13:00,59.5,59.5,28.88,South,171,0.0,0.0,100,0.00,,,0.44,16,WeatherCatV1.21B27,2013-11-01 15:13:00,
2013-11-01 11:14:00,59.6,59.6,28.88,South,171,0.0,0.0,100,0.00,,,0.44,12,WeatherCatV1.21B27,2013-11-01 15:14:00,
2013-11-01 11:15:00,59.5,59.5,28.88,South,171,0.0,0.0,100,0.00,,,0.44,12,WeatherCatV1.21B27,2013-11-01 15:15:00,
2013-11-01 11:17:00,59.6,59.6,28.88,South,171,0.0,0.0,100,0.00,,,0.44,11,WeatherCatV1.21B27,2013-11-01 15:17:00,
2013-11-01 11:18:00,59.6,59.6,28.88,South,185,0.0,1.0,100,0.00,,,0.44,14,WeatherCatV1.21B27,2013-11-01 15:18:00,
2013-11-01 11:19:00,59.6,59.6,28.88,South,185,0.0,0.0,100,0.00,,,0.44,23,WeatherCatV1.21B27,2013-11-01 15:19:00,
2013-11-01 11:20:00,59.6,59.6,28.88,South,185,0.0,0.0,100,0.00,,,0.44,19,WeatherCatV1.21B27,2013-11-01 15:20:00,
2013-11-01 11:22:00,59.6,59.6,28.87,South,185,0.0,0.0,100,0.00,,,0.44,18,WeatherCatV1.21B27,2013-11-01 15:22:00,
2013-11-01 11:23:00,59.6,59.6,28.87,South,185,0.0,0.0,100,0.00,,,0.44,18,WeatherCatV1.21B27,2013-11-01 15:23:00,
2013-11-01 11:25:00,59.6,59.6,28.87,South,185,0.0,0.0,100,0.00,,,0.44,9,WeatherCatV1.21B27,2013-11-01 15:25:00,
2013-11-01 11:26:00,59.7,59.7,28.87,South,185,0.0,0.0,100,0.00,,,0.44,7,WeatherCatV1.21B27,2013-11-01 15:26:00,
2013-11-01 11:28:00,59.7,59.7,28.87,South,185,0.0,0.0,100,0.00,,,0.44,9,WeatherCatV1.21B27,2013-11-01 15:28:00,
2013-11-01 11:29:00,59.7,59.7,28.87,South,185,0.0,1.0,100,0.00,,,0.44,11,WeatherCatV1.21B27,2013-11-01 15:29:00,
2013-11-01 11:30:00,59.7,59.7,28.86,South,185,0.0,1.0,100,0.00,,,0.44,12,WeatherCatV1.21B27,2013-11-01 15:30:00,
2013-11-01 11:31:00,59.8,59.8,28.86,SW,219,0.0,1.0,100,0.00,,,0.44,12,WeatherCatV1.21B27,2013-11-01 15:31:00,
2013-11-01 11:33:00,59.8,59.8,28.86,SW,219,0.0,0.0,100,0.00,,,0.44,11,WeatherCatV1.21B27,2013-11-01 15:33:00,
2013-11-01 11:34:00,59.8,59.8,28.86,SW,219,0.0,0.0,100,0.00,,,0.44,9,WeatherCatV1.21B27,2013-11-01 15:34:00,
2013-11-01 11:35:00,59.8,59.8,28.86,SW,219,0.0,0.0,100,0.00,,,0.44,9,WeatherCatV1.21B27,2013-11-01 15:35:00,
2013-11-01 11:37:00,59.9,59.9,28.86,SW,219,0.0,0.0,100,0.00,,,0.44,7,WeatherCatV1.21B27,2013-11-01 15:37:00,
2013-11-01 11:38:00,59.9,59.9,28.86,SW,219,0.0,0.0,100,0.00,,,0.44,7,WeatherCatV1.21B27,2013-11-01 15:38:00,
2013-11-01 11:39:00,59.9,59.9,28.86,SW,219,0.0,0.0,100,0.00,,,0.44,7,WeatherCatV1.21B27,2013-11-01 15:39:00,
2013-11-01 11:40:00,59.9,59.9,28.86,SW,219,0.0,0.0,100,0.00,,,0.44,9,WeatherCatV1.21B27,2013-11-01 15:40:00,
2013-11-01 11:42:00,59.9,59.9,28.86,SW,219,0.0,0.0,100,0.00,,,0.44,7,WeatherCatV1.21B27,2013-11-01 15:42:00,
2013-11-01 11:43:00,60.0,60.0,28.86,SW,219,0.0,0.0,100,0.00,,,0.45,5,WeatherCatV1.21B27,2013-11-01 15:43:00,
2013-11-01 11:44:00,59.9,59.9,28.87,SW,219,0.0,0.0,100,0.00,,,0.45,5,WeatherCatV1.21B27,2013-11-01 15:44:00,
2013-11-01 11:45:00,60.0,60.0,28.87,SW,219,0.0,0.0,100,0.00,,,0.45,5,WeatherCatV1.21B27,2013-11-01 15:45:00,
2013-11-01 11:47:00,60.0,60.0,28.86,SSW,207,0.0,1.0,100,0.16,,,0.46,14,WeatherCatV1.21B27,2013-11-01 15:47:00,
2013-11-01 11:48:00,60.0,60.0,28.86,SSW,207,0.0,1.0,100,0.16,,,0.46,14,WeatherCatV1.21B27,2013-11-01 15:48:00,
2013-11-01 11:50:00,60.0,60.0,28.86,SSW,207,0.0,1.0,100,0.21,,,0.47,19,WeatherCatV1.21B27,2013-11-01 15:50:00,
2013-11-01 11:52:00,60.1,60.1,28.86,SSE,162,0.0,2.0,100,0.30,,,0.48,21,WeatherCatV1.21B27,2013-11-01 15:52:00,
2013-11-01 11:53:00,60.1,60.1,28.86,SSE,162,0.0,0.0,100,0.30,,,0.48,21,WeatherCatV1.21B27,2013-11-01 15:53:00,
2013-11-01 11:55:00,60.2,60.2,28.85,SSW,211,0.0,3.0,100,0.21,,,0.49,14,WeatherCatV1.21B27,2013-11-01 15:55:00,
2013-11-01 11:57:00,60.3,60.3,28.85,South,174,0.0,2.0,100,0.26,,,0.50,18,WeatherCatV1.21B27,2013-11-01 15:57:00,
2013-11-01 11:59:00,60.4,60.4,28.85,South,174,0.0,0.0,100,0.26,,,0.50,23,WeatherCatV1.21B27,2013-11-01 15:59:00,
2013-11-01 12:00:00,60.4,60.4,28.85,South,173,0.0,3.0,100,0.19,,,0.50,25,WeatherCatV1.21B27,2013-11-01 16:00:00,
2013-11-01 12:02:00,60.5,60.5,28.86,SSE,165,0.0,1.0,100,0.16,,,0.51,25,WeatherCatV1.21B27,2013-11-01 16:02:00,
2013-11-01 12:04:00,60.6,60.6,28.86,SSE,166,0.0,1.0,100,0.33,,,0.52,30,WeatherCatV1.21B27,2013-11-01 16:04:00,
2013-11-01 12:05:00,60.7,60.7,28.86,SSE,157,0.0,1.0,100,0.73,,,0.54,51,WeatherCatV1.21B27,2013-11-01 16:05:00,
2013-11-01 12:06:00,60.7,60.7,28.86,SSE,157,0.0,1.0,100,0.73,,,0.54,62,WeatherCatV1.21B27,2013-11-01 16:06:00,
2013-11-01 12:08:00,60.8,60.8,28.87,SSE,158,0.0,1.0,100,0.63,,,0.56,63,WeatherCatV1.21B27,2013-11-01 16:08:00,
2013-11-01 12:09:00,60.9,60.9,28.87,SSE,155,0.0,2.0,100,0.44,,,0.57,76,WeatherCatV1.21B27,2013-11-01 16:09:00,
2013-11-01 12:10:00,61.0,61.0,28.87,ESE,119,6.0,6.0,100,0.34,,,0.57,56,WeatherCatV1.21B27,2013-11-01 16:10:00,
2013-11-01 12:11:00,61.0,61.0,28.87,SSE,168,1.0,6.0,100,0.26,,,0.57,58,WeatherCatV1.21B27,2013-11-01 16:11:00,
2013-11-01 12:13:00,61.2,61.2,28.89,SSW,210,0.0,2.0,100,0.26,,,0.58,53,WeatherCatV1.21B27,2013-11-01 16:13:00,
2013-11-01 12:14:00,61.2,61.2,28.89,SW,236,0.0,4.0,100,0.16,,,0.58,32,WeatherCatV1.21B27,2013-11-01 16:14:00,
2013-11-01 12:15:00,61.2,61.2,28.89,SSW,201,0.0,4.0,100,0.15,,,0.59,35,WeatherCatV1.21B27,2013-11-01 16:15:00,
2013-11-01 12:16:00,61.3,61.3,28.90,WNW,286,0.0,2.0,100,0.57,,,0.60,49,WeatherCatV1.21B27,2013-11-01 16:16:00,
2013-11-01 12:18:00,61.4,61.4,28.89,South,189,0.0,4.0,100,0.47,,,0.61,81,WeatherCatV1.21B27,2013-11-01 16:18:00,
2013-11-01 12:19:00,61.4,61.4,28.89,SSE,148,0.0,2.0,100,0.43,,,0.62,76,WeatherCatV1.21B27,2013-11-01 16:19:00,
2013-11-01 12:20:00,61.4,61.4,28.89,SSE,148,0.0,2.0,100,0.27,,,0.62,65,WeatherCatV1.21B27,2013-11-01 16:20:00,
2013-11-01 12:21:00,61.4,61.4,28.89,SSE,148,0.0,0.0,100,0.21,,,0.62,58,WeatherCatV1.21B27,2013-11-01 16:21:00,
2013-11-01 12:24:00,61.4,61.4,28.89,South,171,0.0,6.0,100,0.11,,,0.62,40,WeatherCatV1.21B27,2013-11-01 16:24:00,
2013-11-01 12:25:00,61.4,61.4,28.89,ESE,102,4.0,6.0,100,0.09,,,0.62,37,WeatherCatV1.21B27,2013-11-01 16:25:00,
2013-11-01 12:26:00,61.3,61.3,28.88,SSW,195,0.0,8.0,100,0.09,,,0.63,37,WeatherCatV1.21B27,2013-11-01 16:26:00,
2013-11-01 12:29:00,61.1,61.1,28.89,South,175,2.0,2.0,100,0.09,,,0.63,63,WeatherCatV1.21B27,2013-11-01 16:29:00,
2013-11-01 12:30:00,61.1,61.1,28.89,South,190,0.0,2.0,100,0.09,,,0.63,60,WeatherCatV1.21B27,2013-11-01 16:30:00,
2013-11-01 12:31:00,60.9,60.9,28.89,SSE,166,1.0,2.0,100,0.09,,,0.63,63,WeatherCatV1.21B27,2013-11-01 16:31:00,
2013-11-01 12:34:00,60.4,60.4,28.88,South,177,2.0,4.0,100,0.06,,,0.63,62,WeatherCatV1.21B27,2013-11-01 16:34:00,
2013-11-01 12:36:00,60.3,60.3,28.88,SSE,147,0.0,2.0,100,0.05,,,0.63,62,WeatherCatV1.21B27,2013-11-01 16:36:00,
2013-11-01 12:37:00,60.2,60.2,28.88,South,169,0.0,2.0,100,0.05,,,0.63,62,WeatherCatV1.21B27,2013-11-01 16:37:00,
2013-11-01 12:38:00,60.1,60.1,28.88,South,169,0.0,0.0,100,0.05,,,0.63,58,WeatherCatV1.21B27,2013-11-01 16:38:00,
2013-11-01 12:39:00,59.9,59.9,28.88,South,172,0.0,4.0,100,0.04,,,0.63,56,WeatherCatV1.21B27,2013-11-01 16:39:00,
2013-11-01 12:41:00,59.7,59.7,28.87,SE,126,1.0,1.0,100,0.04,,,0.63,49,WeatherCatV1.21B27,2013-11-01 16:41:00,
2013-11-01 12:42:00,59.7,59.7,28.88,SE,126,0.0,4.0,100,0.04,,,0.63,46,WeatherCatV1.21B27,2013-11-01 16:42:00,
2013-11-01 12:43:00,59.6,59.6,28.88,SE,146,0.0,4.0,100,0.00,,,0.63,47,WeatherCatV1.21B27,2013-11-01 16:43:00,
2013-11-01 12:44:00,59.5,59.5,28.87,South,185,0.0,4.0,100,0.00,,,0.63,47,WeatherCatV1.21B27,2013-11-01 16:44:00,
2013-11-01 12:46:00,59.3,59.3,28.87,SE,139,0.0,1.0,100,0.00,,,0.63,42,WeatherCatV1.21B27,2013-11-01 16:46:00,
2013-11-01 12:47:00,59.2,59.2,28.87,SE,139,0.0,1.0,100,0.00,,,0.63,39,WeatherCatV1.21B27,2013-11-01 16:47:00,
2013-11-01 12:48:00,59.0,59.0,28.86,SE,139,0.0,1.0,100,0.00,,,0.63,35,WeatherCatV1.21B27,2013-11-01 16:48:00,
2013-11-01 12:49:00,59.0,59.0,28.86,SE,139,0.0,1.0,100,0.00,,,0.63,32,WeatherCatV1.21B27,2013-11-01 16:49:00,
2013-11-01 12:51:00,59.0,59.0,28.86,SE,141,1.0,1.0,100,0.00,,,0.63,32,WeatherCatV1.21B27,2013-11-01 16:51:00,
2013-11-01 12:52:00,59.0,59.0,28.86,SE,136,2.0,2.0,100,0.00,,,0.63,35,WeatherCatV1.21B27,2013-11-01 16:52:00,
2013-11-01 12:53:00,59.0,59.0,28.86,SW,232,0.0,2.0,100,0.00,,,0.63,35,WeatherCatV1.21B27,2013-11-01 16:53:00,
2013-11-01 12:54:00,59.0,59.0,28.86,South,176,0.0,1.0,100,0.00,,,0.63,32,WeatherCatV1.21B27,2013-11-01 16:54:00,
2013-11-01 12:55:00,59.0,59.0,28.86,South,190,1.0,2.0,100,0.00,,,0.63,23,WeatherCatV1.21B27,2013-11-01 16:55:00,
2013-11-01 12:56:00,59.0,59.0,28.86,South,185,0.0,2.0,100,0.00,,,0.63,23,WeatherCatV1.21B27,2013-11-01 16:56:00,
2013-11-01 12:57:00,58.9,58.9,28.86,South,185,0.0,2.0,100,0.00,,,0.63,23,WeatherCatV1.21B27,2013-11-01 16:57:00,
2013-11-01 12:58:00,58.7,58.7,28.86,South,185,0.0,1.0,100,0.00,,,0.63,23,WeatherCatV1.21B27,2013-11-01 16:58:00,
2013-11-01 12:59:00,58.7,58.7,28.87,South,174,0.0,1.0,100,0.00,,,0.63,16,WeatherCatV1.21B27,2013-11-01 16:59:00,
2013-11-01 13:01:00,58.6,58.6,28.86,South,174,0.0,1.0,100,0.00,,,0.64,14,WeatherCatV1.21B27,2013-11-01 17:01:00,
2013-11-01 13:02:00,58.6,58.6,28.86,South,174,0.0,1.0,100,0.00,,,0.64,11,WeatherCatV1.21B27,2013-11-01 17:02:00,
2013-11-01 13:03:00,58.6,58.6,28.85,South,174,0.0,1.0,100,0.00,,,0.64,11,WeatherCatV1.21B27,2013-11-01 17:03:00,
2013-11-01 13:04:00,58.6,58.6,28.85,South,174,0.0,0.0,100,0.00,,,0.64,12,WeatherCatV1.21B27,2013-11-01 17:04:00,
2013-11-01 13:06:00,58.5,58.5,28.84,South,174,0.0,0.0,100,0.00,,,0.64,14,WeatherCatV1.21B27,2013-11-01 17:06:00,
2013-11-01 13:07:00,58.5,58.5,28.84,South,174,0.0,0.0,100,0.00,,,0.64,12,WeatherCatV1.21B27,2013-11-01 17:07:00,
2013-11-01 13:09:00,58.4,58.4,28.84,SSE,154,2.0,2.0,100,0.00,,,0.64,12,WeatherCatV1.21B27,2013-11-01 17:09:00,
2013-11-01 13:10:00,58.2,58.2,28.83,South,171,0.0,2.0,100,0.00,,,0.64,14,WeatherCatV1.21B27,2013-11-01 17:10:00,
2013-11-01 13:11:00,58.2,58.2,28.84,South,171,1.0,1.0,100,0.00,,,0.64,14,WeatherCatV1.21B27,2013-11-01 17:11:00,
2013-11-01 13:12:00,58.2,58.2,28.85,South,171,0.0,1.0,100,0.00,,,0.64,12,WeatherCatV1.21B27,2013-11-01 17:12:00,
2013-11-01 13:14:00,58.1,58.1,28.86,South,171,0.0,1.0,100,0.00,,,0.64,12,WeatherCatV1.21B27,2013-11-01 17:14:00,
2013-11-01 13:15:00,58.1,58.1,28.86,South,171,0.0,1.0,100,0.00,,,0.64,12,WeatherCatV1.21B27,2013-11-01 17:15:00,
2013-11-01 13:16:00,58.1,58.1,28.86,South,171,0.0,0.0,100,0.00,,,0.64,9,WeatherCatV1.21B27,2013-11-01 17:16:00,
2013-11-01 13:17:00,58.1,58.1,28.85,South,171,0.0,0.0,100,0.00,,,0.64,9,WeatherCatV1.21B27,2013-11-01 17:17:00,
2013-11-01 13:19:00,58.0,58.0,28.85,South,171,0.0,0.0,100,0.00,,,0.65,7,WeatherCatV1.21B27,2013-11-01 17:19:00,
2013-11-01 13:20:00,58.0,58.0,28.84,SSE,165,0.0,1.0,100,0.00,,,0.65,7,WeatherCatV1.21B27,2013-11-01 17:20:00,
2013-11-01 13:22:00,57.9,57.9,28.83,SSE,164,0.0,0.0,100,0.00,,,0.65,7,WeatherCatV1.21B27,2013-11-01 17:22:00,
2013-11-01 13:24:00,57.7,57.7,28.83,South,185,1.0,2.0,100,0.00,,,0.65,9,WeatherCatV1.21B27,2013-11-01 17:24:00,
2013-11-01 13:25:00,57.6,57.6,28.84,South,183,1.0,1.0,100,0.00,,,0.65,18,WeatherCatV1.21B27,2013-11-01 17:25:00,
2013-11-01 13:26:00,57.6,57.6,28.84,South,182,0.0,1.0,100,0.00,,,0.65,18,WeatherCatV1.21B27,2013-11-01 17:26:00,
2013-11-01 13:27:00,57.5,57.5,28.83,SSE,165,0.0,3.0,100,0.00,,,0.65,28,WeatherCatV1.21B27,2013-11-01 17:27:00,
2013-11-01 13:28:00,57.4,57.4,28.83,SSE,156,1.0,3.0,100,0.00,,,0.65,30,WeatherCatV1.21B27,2013-11-01 17:28:00,
2013-11-01 13:29:00,57.3,57.3,28.83,SSE,167,2.0,2.0,100,0.00,,,0.65,28,WeatherCatV1.21B27,2013-11-01 17:29:00,
2013-11-01 13:31:00,57.2,57.2,28.83,SSE,167,0.0,2.0,100,0.05,,,0.66,28,WeatherCatV1.21B27,2013-11-01 17:31:00,
2013-11-01 13:32:00,57.1,57.1,28.83,SSE,151,2.0,2.0,100,0.05,,,0.66,28,WeatherCatV1.21B27,2013-11-01 17:32:00,
2013-11-01 13:33:00,57.0,57.0,28.83,SSE,153,0.0,2.0,100,0.05,,,0.66,33,WeatherCatV1.21B27,2013-11-01 17:33:00,
2013-11-01 13:35:00,56.9,56.9,28.84,SSE,153,0.0,0.0,100,0.05,,,0.66,39,WeatherCatV1.21B27,2013-11-01 17:35:00,
2013-11-01 13:36:00,56.9,56.9,28.84,SSW,210,0.0,1.0,100,0.05,,,0.66,47,WeatherCatV1.21B27,2013-11-01 17:36:00,
2013-11-01 13:37:00,56.9,56.9,28.84,South,191,0.0,1.0,100,0.05,,,0.66,56,WeatherCatV1.21B27,2013-11-01 17:37:00,
2013-11-01 13:39:00,56.8,56.8,28.84,South,191,0.0,0.0,100,0.05,,,0.66,65,WeatherCatV1.21B27,2013-11-01 17:39:00,
2013-11-01 13:40:00,56.8,56.8,28.84,SSE,157,1.0,1.0,100,0.05,,,0.66,58,WeatherCatV1.21B27,2013-11-01 17:40:00,
2013-11-01 13:41:00,56.8,56.8,28.85,SSE,157,0.0,1.0,100,0.05,,,0.66,56,WeatherCatV1.21B27,2013-11-01 17:41:00,
2013-11-01 13:42:00,56.8,56.8,28.85,SSE,163,0.0,0.0,100,0.05,,,0.66,62,WeatherCatV1.21B27,2013-11-01 17:42:00,
2013-11-01 13:44:00,56.8,56.8,28.85,SE,142,1.0,3.0,100,0.04,,,0.66,63,WeatherCatV1.21B27,2013-11-01 17:44:00,
2013-11-01 13:45:00,56.7,56.7,28.85,SW,225,0.0,4.0,100,0.04,,,0.66,51,WeatherCatV1.21B27,2013-11-01 17:45:00,
2013-11-01 13:46:00,56.7,56.7,28.85,SSW,209,0.0,4.0,100,0.04,,,0.66,56,WeatherCatV1.21B27,2013-11-01 17:46:00,
2013-11-01 13:47:00,56.7,56.7,28.85,SSW,196,0.0,0.0,100,0.00,,,0.66,81,WeatherCatV1.21B27,2013-11-01 17:47:00,
2013-11-01 13:48:00,56.7,56.7,28.85,SSW,196,0.0,0.0,100,0.00,,,0.66,81,WeatherCatV1.21B27,2013-11-01 17:48:00,
2013-11-01 13:49:00,56.7,56.7,28.85,SSW,196,0.0,0.0,100,0.00,,,0.66,90,WeatherCatV1.21B27,2013-11-01 17:49:00,
2013-11-01 13:50:00,56.8,56.8,28.85,SSW,196,0.0,1.0,100,0.00,,,0.66,83,WeatherCatV1.21B27,2013-11-01 17:50:00,
2013-11-01 13:52:00,56.8,56.8,28.85,SSW,194,0.0,1.0,100,0.00,,,0.66,84,WeatherCatV1.21B27,2013-11-01 17:52:00,
2013-11-01 13:53:00,56.8,56.8,28.85,SSW,194,0.0,1.0,100,0.00,,,0.66,86,WeatherCatV1.21B27,2013-11-01 17:53:00,
2013-11-01 13:54:00,56.8,56.8,28.84,SW,227,1.0,1.0,100,0.00,,,0.66,74,WeatherCatV1.21B27,2013-11-01 17:54:00,
2013-11-01 13:55:00,56.9,56.9,28.85,South,190,0.0,4.0,100,0.00,,,0.66,65,WeatherCatV1.21B27,2013-11-01 17:55:00,
2013-11-01 13:58:00,56.9,56.9,28.84,South,190,0.0,1.0,100,0.00,,,0.66,88,WeatherCatV1.21B27,2013-11-01 17:58:00,
2013-11-01 13:59:00,57.0,57.0,28.83,South,190,0.0,1.0,100,0.00,,,0.66,120,WeatherCatV1.21B27,2013-11-01 17:59:00,
2013-11-01 14:00:00,57.1,57.1,28.84,South,190,0.0,0.0,100,0.00,,,0.66,123,WeatherCatV1.21B27,2013-11-01 18:00:00,
2013-11-01 14:03:00,57.2,57.2,28.84,South,190,0.0,0.0,100,0.00,,,0.66,53,WeatherCatV1.21B27,2013-11-01 18:03:00,
2013-11-01 14:04:00,57.2,57.2,28.84,South,190,0.0,0.0,100,0.00,,,0.66,44,WeatherCatV1.21B27,2013-11-01 18:04:00,
2013-11-01 14:05:00,57.4,57.4,28.84,South,190,0.0,1.0,100,0.00,,,0.66,40,WeatherCatV1.21B27,2013-11-01 18:05:00,
2013-11-01 14:08:00,57.6,57.6,28.84,South,190,1.0,1.0,100,0.00,,,0.66,30,WeatherCatV1.21B27,2013-11-01 18:08:00,
2013-11-01 14:09:00,57.7,57.7,28.85,South,190,0.0,1.0,100,0.00,,,0.66,28,WeatherCatV1.21B27,2013-11-01 18:09:00,
2013-11-01 14:10:00,57.7,57.7,28.85,South,190,0.0,1.0,100,0.00,,,0.66,28,WeatherCatV1.21B27,2013-11-01 18:10:00,
2013-11-01 14:11:00,57.8,57.8,28.85,South,190,0.0,0.0,100,0.00,,,0.66,28,WeatherCatV1.21B27,2013-11-01 18:11:00,
2013-11-01 14:13:00,57.9,57.9,28.85,SSW,212,0.0,3.0,100,0.00,,,0.66,28,WeatherCatV1.21B27,2013-11-01 18:13:00,
2013-11-01 14:15:00,58.0,58.0,28.84,SE,139,0.0,2.0,100,0.00,,,0.66,28,WeatherCatV1.21B27,2013-11-01 18:15:00,
2013-11-01 14:16:00,58.0,58.0,28.85,SE,139,0.0,0.0,100,0.00,,,0.66,28,WeatherCatV1.21B27,2013-11-01 18:16:00,
2013-11-01 14:18:00,58.1,58.1,28.85,South,179,0.0,2.0,100,0.00,,,0.66,28,WeatherCatV1.21B27,2013-11-01 18:18:00,
2013-11-01 14:19:00,58.1,58.1,28.85,South,179,0.0,2.0,100,0.00,,,0.66,28,WeatherCatV1.21B27,2013-11-01 18:19:00,
2013-11-01 14:20:00,58.1,58.1,28.85,SE,136,0.0,1.0,100,0.00,,,0.66,28,WeatherCatV1.21B27,2013-11-01 18:20:00,
2013-11-01 14:21:00,58.1,58.1,28.85,SE,136,0.0,1.0,100,0.00,,,0.66,28,WeatherCatV1.21B27,2013-11-01 18:21:00,
2013-11-01 14:22:00,58.1,58.1,28.85,SSE,168,0.0,0.0,100,0.00,,,0.66,28,WeatherCatV1.21B27,2013-11-01 18:22:00,
2013-11-01 14:23:00,58.1,58.1,28.85,South,178,0.0,1.0,100,0.00,,,0.66,21,WeatherCatV1.21B27,2013-11-01 18:23:00,
2013-11-01 14:24:00,58.1,58.1,28.85,South,178,0.0,1.0,100,0.00,,,0.66,21,WeatherCatV1.21B27,2013-11-01 18:24:00,
2013-11-01 14:26:00,58.2,58.2,28.85,South,178,0.0,1.0,100,0.00,,,0.66,19,WeatherCatV1.21B27,2013-11-01 18:26:00,
2013-11-01 14:27:00,58.2,58.2,28.85,South,178,0.0,1.0,100,0.00,,,0.66,30,WeatherCatV1.21B27,2013-11-01 18:27:00,
2013-11-01 14:29:00,58.2,58.2,28.85,South,178,0.0,0.0,100,0.00,,,0.66,14,WeatherCatV1.21B27,2013-11-01 18:29:00,
2013-11-01 14:31:00,58.3,58.3,28.85,South,178,0.0,1.0,100,0.00,,,0.66,26,WeatherCatV1.21B27,2013-11-01 18:31:00,
2013-11-01 14:32:00,58.3,58.3,28.85,South,178,0.0,1.0,100,0.00,,,0.66,26,WeatherCatV1.21B27,2013-11-01 18:32:00,
2013-11-01 14:34:00,58.3,58.3,28.84,South,178,0.0,1.0,100,0.00,,,0.66,28,WeatherCatV1.21B27,2013-11-01 18:34:00,
2013-11-01 14:36:00,58.3,58.3,28.84,South,191,0.0,1.0,100,0.00,,,0.66,26,WeatherCatV1.21B27,2013-11-01 18:36:00,
2013-11-01 14:37:00,58.3,58.3,28.84,South,191,0.0,1.0,100,0.00,,,0.66,28,WeatherCatV1.21B27,2013-11-01 18:37:00,
2013-11-01 14:38:00,58.3,58.3,28.84,SSE,165,0.0,1.0,100,0.00,,,0.66,26,WeatherCatV1.21B27,2013-11-01 18:38:00,
2013-11-01 14:39:00,58.4,58.4,28.84,South,176,0.0,2.0,100,0.00,,,0.66,28,WeatherCatV1.21B27,2013-11-01 18:39:00,
2013-11-01 14:42:00,58.2,58.2,28.84,SSE,167,0.0,3.0,100,0.00,,,0.66,25,WeatherCatV1.21B27,2013-11-01 18:42:00,
2013-11-01 14:43:00,58.2,58.2,28.84,SSE,167,0.0,1.0,100,0.00,,,0.66,26,WeatherCatV1.21B27,2013-11-01 18:43:00,
2013-11-01 14:44:00,58.2,58.2,28.84,SSE,167,0.0,0.0,100,0.00,,,0.66,28,WeatherCatV1.21B27,2013-11-01 18:44:00,
2013-11-01 14:47:00,58.2,58.2,28.84,South,173,0.0,2.0,100,0.00,,,0.66,30,WeatherCatV1.21B27,2013-11-01 18:47:00,
2013-11-01 14:48:00,58.2,58.2,28.84,SSE,167,0.0,2.0,100,0.00,,,0.66,26,WeatherCatV1.21B27,2013-11-01 18:48:00,
2013-11-01 14:49:00,58.2,58.2,28.84,SSE,167,0.0,0.0,100,0.00,,,0.66,25,WeatherCatV1.21B27,2013-11-01 18:49:00,
2013-11-01 14:50:00,58.2,58.2,28.84,SSE,167,0.0,0.0,100,0.00,,,0.66,28,WeatherCatV1.21B27,2013-11-01 18:50:00,
2013-11-01 14:52:00,58.2,58.2,28.84,SE,142,0.0,1.0,100,0.00,,,0.66,30,WeatherCatV1.21B27,2013-11-01 18:52:00,
2013-11-01 14:53:00,58.2,58.2,28.84,SE,144,0.0,1.0,100,0.00,,,0.66,28,WeatherCatV1.21B27,2013-11-01 18:53:00,
2013-11-01 14:54:00,58.2,58.2,28.84,SSE,162,0.0,4.0,100,0.00,,,0.66,21,WeatherCatV1.21B27,2013-11-01 18:54:00,
2013-11-01 14:55:00,58.1,58.1,28.85,SSE,162,0.0,4.0,100,0.00,,,0.66,30,WeatherCatV1.21B27,2013-11-01 18:55:00,
2013-11-01 14:56:00,58.1,58.1,28.85,ESE,117,0.0,1.0,100,0.00,,,0.66,18,WeatherCatV1.21B27,2013-11-01 18:56:00,
2013-11-01 14:57:00,58.1,58.1,28.84,South,182,0.0,1.0,100,0.00,,,0.66,28,WeatherCatV1.21B27,2013-11-01 18:57:00,
2013-11-01 14:58:00,58.1,58.1,28.84,SSE,168,0.0,2.0,100,0.00,,,0.66,30,WeatherCatV1.21B27,2013-11-01 18:58:00,
2013-11-01 14:59:00,58.1,58.1,28.84,SSE,168,0.0,2.0,100,0.00,,,0.66,28,WeatherCatV1.21B27,2013-11-01 18:59:00,
2013-11-01 15:00:00,58.1,58.1,28.84,South,171,1.0,1.0,100,0.00,,,0.66,30,WeatherCatV1.21B27,2013-11-01 19:00:00,
2013-11-01 15:01:00,58.1,58.1,28.84,South,171,0.0,1.0,100,0.00,,,0.66,33,WeatherCatV1.21B27,2013-11-01 19:01:00,
2013-11-01 15:02:00,58.1,58.1,28.84,South,171,0.0,1.0,100,0.00,,,0.66,32,WeatherCatV1.21B27,2013-11-01 19:02:00,
2013-11-01 15:03:00,58.1,58.1,28.84,South,171,0.0,1.0,100,0.00,,,0.66,32,WeatherCatV1.21B27,2013-11-01 19:03:00,
2013-11-01 15:04:00,58.1,58.1,28.84,South,171,0.0,0.0,100,0.00,,,0.66,42,WeatherCatV1.21B27,2013-11-01 19:04:00,
2013-11-01 15:05:00,58.1,58.1,28.84,South,171,0.0,0.0,100,0.00,,,0.66,40,WeatherCatV1.21B27,2013-11-01 19:05:00,
2013-11-01 15:06:00,58.1,58.1,28.84,SSW,194,1.0,1.0,100,0.00,,,0.66,33,WeatherCatV1.21B27,2013-11-01 19:06:00,
2013-11-01 15:07:00,58.0,58.0,28.84,South,180,0.0,1.0,100,0.00,,,0.66,42,WeatherCatV1.21B27,2013-11-01 19:07:00,
2013-11-01 15:08:00,58.0,58.0,28.84,South,180,0.0,1.0,100,0.00,,,0.66,42,WeatherCatV1.21B27,2013-11-01 19:08:00,
2013-11-01 15:09:00,58.0,58.0,28.85,South,180,0.0,1.0,100,0.00,,,0.66,25,WeatherCatV1.21B27,2013-11-01 19:09:00,
2013-11-01 15:10:00,58.0,58.0,28.85,South,180,0.0,1.0,100,0.00,,,0.66,23,WeatherCatV1.21B27,2013-11-01 19:10:00,
2013-11-01 15:12:00,58.0,58.0,28.84,SSE,155,0.0,1.0,100,0.00,,,0.66,46,WeatherCatV1.21B27,2013-11-01 19:12:00,
2013-11-01 15:13:00,58.0,58.0,28.84,South,188,0.0,1.0,100,0.00,,,0.66,33,WeatherCatV1.21B27,2013-11-01 19:13:00,
2013-11-01 15:14:00,57.9,57.9,28.84,South,182,0.0,1.0,100,0.00,,,0.66,25,WeatherCatV1.21B27,2013-11-01 19:14:00,
2013-11-01 15:15:00,58.0,58.0,28.84,South,182,0.0,1.0,100,0.00,,,0.66,25,WeatherCatV1.21B27,2013-11-01 19:15:00,
2013-11-01 15:16:00,58.0,58.0,28.84,South,182,0.0,1.0,100,0.00,,,0.66,30,WeatherCatV1.21B27,2013-11-01 19:16:00,
2013-11-01 15:17:00,58.0,58.0,28.84,SSW,195,0.0,1.0,100,0.00,,,0.66,26,WeatherCatV1.21B27,2013-11-01 19:17:00,
2013-11-01 15:18:00,58.0,58.0,28.84,SSW,195,0.0,1.0,100,0.00,,,0.66,30,WeatherCatV1.21B27,2013-11-01 19:18:00,
2013-11-01 15:20:00,58.0,58.0,28.84,SSE,148,0.0,3.0,100,0.00,,,0.66,18,WeatherCatV1.21B27,2013-11-01 19:20:00,
2013-11-01 15:21:00,58.0,58.0,28.84,SSE,148,0.0,3.0,100,0.00,,,0.66,23,WeatherCatV1.21B27,2013-11-01 19:21:00,
2013-11-01 15:23:00,58.0,58.0,28.84,SSE,148,0.0,1.0,100,0.00,,,0.66,26,WeatherCatV1.21B27,2013-11-01 19:23:00,
2013-11-01 15:24:00,58.0,58.0,28.84,SSE,148,0.0,0.0,100,0.00,,,0.66,21,WeatherCatV1.21B27,2013-11-01 19:24:00,
2013-11-01 15:25:00,58.0,58.0,28.84,SSE,148,0.0,0.0,100,0.00,,,0.66,26,WeatherCatV1.21B27,2013-11-01 19:25:00,
2013-11-01 15:27:00,58.0,58.0,28.84,South,175,0.0,6.0,100,0.00,,,0.66,39,WeatherCatV1.21B27,2013-11-01 19:27:00,
2013-11-01 15:28:00,58.0,58.0,28.84,SSE,161,0.0,1.0,100,0.00,,,0.66,28,WeatherCatV1.21B27,2013-11-01 19:28:00,
2013-11-01 15:29:00,58.0,58.0,28.84,SSE,161,0.0,1.0,100,0.00,,,0.66,30,WeatherCatV1.21B27,2013-11-01 19:29:00,
2013-11-01 15:30:00,58.0,57.7,28.84,SSE,161,0.0,1.0,99,0.00,,,0.66,28,WeatherCatV1.21B27,2013-11-01 19:30:00,
2013-11-01 15:31:00,58.0,57.7,28.84,SW,219,1.0,1.0,99,0.00,,,0.66,33,WeatherCatV1.21B27,2013-11-01 19:31:00,
2013-11-01 15:32:00,58.0,57.7,28.84,South,174,1.0,1.0,99,0.00,,,0.66,21,WeatherCatV1.21B27,2013-11-01 19:32:00,
2013-11-01 15:34:00,58.0,57.7,28.84,WSW,250,4.0,4.0,99,0.00,,,0.66,18,WeatherCatV1.21B27,2013-11-01 19:34:00,
2013-11-01 15:35:00,58.0,57.7,28.84,South,172,0.0,4.0,99,0.00,,,0.66,23,WeatherCatV1.21B27,2013-11-01 19:35:00,
2013-11-01 15:36:00,58.0,57.7,28.84,South,172,1.0,1.0,99,0.00,,,0.66,32,WeatherCatV1.21B27,2013-11-01 19:36:00,
2013-11-01 15:37:00,58.0,57.7,28.84,SW,236,1.0,5.0,99,0.00,,,0.66,25,WeatherCatV1.21B27,2013-11-01 19:37:00,
2013-11-01 15:39:00,58.1,57.5,28.84,SSE,165,0.0,2.0,98,0.00,,,0.66,21,WeatherCatV1.21B27,2013-11-01 19:39:00,
2013-11-01 15:40:00,58.1,57.5,28.84,South,175,0.0,1.0,98,0.00,,,0.66,26,WeatherCatV1.21B27,2013-11-01 19:40:00,
2013-11-01 15:41:00,58.1,57.5,28.84,South,175,0.0,1.0,98,0.00,,,0.66,25,WeatherCatV1.21B27,2013-11-01 19:41:00,
2013-11-01 15:42:00,58.1,57.5,28.84,South,175,0.0,1.0,98,0.00,,,0.66,25,WeatherCatV1.21B27,2013-11-01 19:42:00,
2013-11-01 15:44:00,58.2,57.3,28.84,SSE,167,1.0,3.0,97,0.00,,,0.67,16,WeatherCatV1.21B27,2013-11-01 19:44:00,
2013-11-01 15:45:00,58.2,57.3,28.85,South,171,0.0,3.0,97,0.00,,,0.67,16,WeatherCatV1.21B27,2013-11-01 19:45:00,
2013-11-01 15:46:00,58.2,57.1,28.84,South,171,0.0,1.0,96,0.00,,,0.67,16,WeatherCatV1.21B27,2013-11-01 19:46:00,
2013-11-01 15:47:00,58.2,57.1,28.84,South,171,0.0,1.0,96,0.00,,,0.67,18,WeatherCatV1.21B27,2013-11-01 19:47:00,
2013-11-01 15:48:00,58.3,57.2,28.85,South,171,0.0,1.0,96,0.00,,,0.67,19,WeatherCatV1.21B27,2013-11-01 19:48:00,
2013-11-01 15:49:00,58.3,57.2,28.84,South,186,0.0,2.0,96,0.00,,,0.67,19,WeatherCatV1.21B27,2013-11-01 19:49:00,
2013-11-01 15:50:00,58.4,57.3,28.84,SSE,160,0.0,2.0,96,0.00,,,0.67,23,WeatherCatV1.21B27,2013-11-01 19:50:00,
2013-11-01 15:51:00,58.4,57.0,28.84,SSW,192,1.0,2.0,95,0.00,,,0.67,33,WeatherCatV1.21B27,2013-11-01 19:51:00,
2013-11-01 15:52:00,58.4,57.0,28.84,South,182,0.0,4.0,95,0.00,,,0.67,95,WeatherCatV1.21B27,2013-11-01 19:52:00,
2013-11-01 15:53:00,58.4,56.7,28.84,SE,146,0.0,4.0,94,0.00,,,0.67,23,WeatherCatV1.21B27,2013-11-01 19:53:00,
2013-11-01 15:54:00,58.5,56.8,28.84,SSE,164,0.0,5.0,94,0.00,,,0.67,42,WeatherCatV1.21B27,2013-11-01 19:54:00,
2013-11-01 15:56:00,58.5,56.8,28.85,South,179,0.0,1.0,94,0.00,,,0.67,21,WeatherCatV1.21B27,2013-11-01 19:56:00,
2013-11-01 15:57:00,58.6,56.9,28.85,South,179,0.0,1.0,94,0.00,,,0.67,21,WeatherCatV1.21B27,2013-11-01 19:57:00,
2013-11-01 15:58:00,58.6,56.9,28.85,South,179,1.0,2.0,94,0.00,,,0.67,148,WeatherCatV1.21B27,2013-11-01 19:58:00,
2013-11-01 15:59:00,58.7,57.0,28.85,South,178,0.0,2.0,94,0.00,,,0.67,148,WeatherCatV1.21B27,2013-11-01 19:59:00,
2013-11-01 16:02:00,58.7,56.7,28.85,South,173,3.0,3.0,93,0.00,,,0.67,14,WeatherCatV1.21B27,2013-11-01 20:02:00,
2013-11-01 16:03:00,58.8,56.8,28.85,SW,228,0.0,3.0,93,0.00,,,0.67,18,WeatherCatV1.21B27,2013-11-01 20:03:00,
2013-11-01 16:04:00,58.8,56.5,28.85,South,178,0.0,2.0,92,0.00,,,0.67,12,WeatherCatV1.21B27,2013-11-01 20:04:00,
2013-11-01 16:07:00,58.9,56.9,28.85,South,184,0.0,1.0,93,0.00,,,0.67,18,WeatherCatV1.21B27,2013-11-01 20:07:00,
2013-11-01 16:08:00,59.0,57.0,28.85,South,182,0.0,1.0,93,0.00,,,0.67,90,WeatherCatV1.21B27,2013-11-01 20:08:00,
2013-11-01 16:10:00,59.0,56.7,28.85,SSW,194,0.0,2.0,92,0.00,,,0.67,18,WeatherCatV1.21B27,2013-11-01 20:10:00,
2013-11-01 16:13:00,59.0,56.7,28.86,SSW,202,0.0,4.0,92,0.00,,,0.67,11,WeatherCatV1.21B27,2013-11-01 20:13:00,
2013-11-01 16:15:00,59.0,56.4,28.86,South,176,0.0,1.0,91,0.00,,,0.67,16,WeatherCatV1.21B27,2013-11-01 20:15:00,
2013-11-01 16:18:00,59.0,56.1,28.85,SW,221,0.0,4.0,90,0.00,,,0.67,12,WeatherCatV1.21B27,2013-11-01 20:18:00,
2013-11-01 16:19:00,59.0,56.1,28.85,SW,221,0.0,3.0,90,0.00,,,0.67,12,WeatherCatV1.21B27,2013-11-01 20:19:00,
2013-11-01 16:20:00,59.0,56.1,28.85,South,172,0.0,1.0,90,0.00,,,0.67,11,WeatherCatV1.21B27,2013-11-01 20:20:00,
2013-11-01 16:23:00,59.0,56.1,28.86,South,172,0.0,3.0,90,0.00,,,0.67,11,WeatherCatV1.21B27,2013-11-01 20:23:00,
2013-11-01 16:24:00,59.0,56.1,28.86,South,172,0.0,3.0,90,0.00,,,0.67,14,WeatherCatV1.21B27,2013-11-01 20:24:00,
2013-11-01 16:25:00,59.0,56.1,28.85,SSW,200,0.0,5.0,90,0.00,,,0.67,12,WeatherCatV1.21B27,2013-11-01 20:25:00,
2013-11-01 16:28:00,59.0,56.1,28.86,SW,232,0.0,1.0,90,0.00,,,0.67,14,WeatherCatV1.21B27,2013-11-01 20:28:00,
2013-11-01 16:29:00,59.0,56.1,28.86,SW,229,0.0,3.0,90,0.00,,,0.67,11,WeatherCatV1.21B27,2013-11-01 20:29:00,
2013-11-01 16:31:00,59.0,55.8,28.86,SSW,204,0.0,2.0,89,0.00,,,0.67,9,WeatherCatV1.21B27,2013-11-01 20:31:00,
2013-11-01 16:33:00,59.0,55.8,28.86,South,169,0.0,1.0,89,0.00,,,0.67,14,WeatherCatV1.21B27,2013-11-01 20:33:00,
2013-11-01 16:34:00,59.0,55.8,28.86,South,169,0.0,0.0,89,0.00,,,0.67,14,WeatherCatV1.21B27,2013-11-01 20:34:00,
2013-11-01 16:35:00,59.0,56.1,28.86,South,185,0.0,2.0,90,0.00,,,0.67,14,WeatherCatV1.21B27,2013-11-01 20:35:00,
2013-11-01 16:36:00,59.0,56.1,28.86,South,185,0.0,2.0,90,0.00,,,0.67,9,WeatherCatV1.21B27,2013-11-01 20:36:00,
2013-11-01 16:39:00,59.0,55.8,28.86,South,184,0.0,1.0,89,0.00,,,0.67,12,WeatherCatV1.21B27,2013-11-01 20:39:00,
2013-11-01 16:40:00,59.0,55.8,28.86,South,184,0.0,1.0,89,0.00,,,0.67,11,WeatherCatV1.21B27,2013-11-01 20:40:00,
2013-11-01 16:41:00,59.0,55.8,28.86,SSE,163,0.0,1.0,89,0.00,,,0.67,11,WeatherCatV1.21B27,2013-11-01 20:41:00,
2013-11-01 16:44:00,59.0,55.5,28.86,South,177,0.0,1.0,88,0.00,,,0.67,9,WeatherCatV1.21B27,2013-11-01 20:44:00,
2013-11-01 16:45:00,59.0,55.8,28.86,SW,223,0.0,2.0,89,0.00,,,0.67,7,WeatherCatV1.21B27,2013-11-01 20:45:00,
2013-11-01 16:46:00,59.0,55.8,28.86,SW,224,0.0,2.0,89,0.00,,,0.67,7,WeatherCatV1.21B27,2013-11-01 20:46:00,
2013-11-01 16:49:00,59.0,55.5,28.86,SW,222,0.0,6.0,88,0.00,,,0.67,9,WeatherCatV1.21B27,2013-11-01 20:49:00,
2013-11-01 16:51:00,59.0,55.5,28.86,South,188,0.0,0.0,88,0.00,,,0.67,7,WeatherCatV1.21B27,2013-11-01 20:51:00,
2013-11-01 16:52:00,59.0,55.5,28.86,South,182,0.0,0.0,88,0.00,,,0.67,7,WeatherCatV1.21B27,2013-11-01 20:52:00,
2013-11-01 16:54:00,59.0,55.5,28.86,South,181,0.0,1.0,88,0.00,,,0.67,7,WeatherCatV1.21B27,2013-11-01 20:54:00,
2013-11-01 16:56:00,59.0,55.5,28.86,South,182,0.0,1.0,88,0.00,,,0.67,7,WeatherCatV1.21B27,2013-11-01 20:56:00,
2013-11-01 16:58:00,59.0,55.5,28.86,South,182,0.0,1.0,88,0.00,,,0.67,7,WeatherCatV1.21B27,2013-11-01 20:58:00,
2013-11-01 16:59:00,59.0,55.5,28.86,South,182,0.0,0.0,88,0.00,,,0.67,7,WeatherCatV1.21B27,2013-11-01 20:59:00,
2013-11-01 17:00:00,59.0,55.5,28.86,South,182,0.0,0.0,88,0.00,,,0.67,7,WeatherCatV1.21B27,2013-11-01 21:00:00,
2013-11-01 17:01:00,59.0,55.5,28.86,South,180,0.0,1.0,88,0.00,,,0.67,5,WeatherCatV1.21B27,2013-11-01 21:01:00,
2013-11-01 17:02:00,59.0,55.8,28.87,South,180,0.0,1.0,89,0.00,,,0.67,5,WeatherCatV1.21B27,2013-11-01 21:02:00,
2013-11-01 17:03:00,59.0,55.8,28.87,South,180,0.0,1.0,89,0.00,,,0.67,5,WeatherCatV1.21B27,2013-11-01 21:03:00,
2013-11-01 17:05:00,59.0,55.5,28.86,South,180,0.0,1.0,88,0.00,,,0.67,5,WeatherCatV1.21B27,2013-11-01 21:05:00,
2013-11-01 17:07:00,58.9,55.3,28.87,West,260,1.0,1.0,88,0.00,,,0.67,5,WeatherCatV1.21B27,2013-11-01 21:07:00,
2013-11-01 17:08:00,58.9,55.3,28.87,West,260,0.0,1.0,88,0.00,,,0.67,5,WeatherCatV1.21B27,2013-11-01 21:08:00,
2013-11-01 17:09:00,58.8,55.2,28.86,SW,230,0.0,1.0,88,0.00,,,0.67,5,WeatherCatV1.21B27,2013-11-01 21:09:00,
2013-11-01 17:10:00,58.8,55.2,28.87,SW,230,0.0,1.0,88,0.00,,,0.67,5,WeatherCatV1.21B27,2013-11-01 21:10:00,
2013-11-01 17:12:00,58.7,55.2,28.87,SSE,160,0.0,1.0,88,0.00,,,0.67,5,WeatherCatV1.21B27,2013-11-01 21:12:00,
2013-11-01 17:13:00,58.7,55.2,28.87,SSE,160,0.0,1.0,88,0.00,,,0.67,5,WeatherCatV1.21B27,2013-11-01 21:13:00,
2013-11-01 17:14:00,58.6,55.0,28.87,SSE,164,0.0,1.0,88,0.00,,,0.67,5,WeatherCatV1.21B27,2013-11-01 21:14:00,
2013-11-01 17:15:00,58.6,55.0,28.87,SSE,164,0.0,1.0,88,0.00,,,0.67,5,WeatherCatV1.21B27,2013-11-01 21:15:00,
2013-11-01 17:17:00,58.6,55.0,28.87,SSE,164,0.0,0.0,88,0.00,,,0.67,0,WeatherCatV1.21B27,2013-11-01 21:17:00,
2013-11-01 17:18:00,58.5,55.0,28.87,SSE,165,0.0,1.0,88,0.00,,,0.67,0,WeatherCatV1.21B27,2013-11-01 21:18:00,
2013-11-01 17:19:00,58.4,54.9,28.87,SSE,165,0.0,0.0,88,0.00,,,0.67,0,WeatherCatV1.21B27,2013-11-01 21:19:00,
2013-11-01 17:20:00,58.4,54.9,28.87,SSE,165,0.0,0.0,88,0.00,,,0.67,0,WeatherCatV1.21B27,2013-11-01 21:20:00,
2013-11-01 17:22:00,58.3,54.8,28.87,SSE,165,0.0,1.0,88,0.00,,,0.67,0,WeatherCatV1.21B27,2013-11-01 21:22:00,
2013-11-01 17:23:00,58.3,54.8,28.87,SSE,165,0.0,1.0,88,0.00,,,0.67,0,WeatherCatV1.21B27,2013-11-01 21:23:00,
2013-11-01 17:25:00,58.2,54.7,28.87,SSE,165,0.0,1.0,88,0.00,,,0.67,0,WeatherCatV1.21B27,2013-11-01 21:25:00,
2013-11-01 17:26:00,58.2,54.7,28.87,SSE,165,0.0,0.0,88,0.00,,,0.67,0,WeatherCatV1.21B27,2013-11-01 21:26:00,
2013-11-01 17:28:00,58.1,54.6,28.87,SSE,165,0.0,0.0,88,0.00,,,0.67,0,WeatherCatV1.21B27,2013-11-01 21:28:00,
2013-11-01 17:30:00,58.0,54.5,28.87,SSE,165,0.0,1.0,88,0.00,,,0.67,0,WeatherCatV1.21B27,2013-11-01 21:30:00,
2013-11-01 17:31:00,57.9,54.4,28.87,SSE,165,0.0,1.0,88,0.00,,,0.67,0,WeatherCatV1.21B27,2013-11-01 21:31:00,
2013-11-01 17:33:00,57.9,54.4,28.88,SSE,165,0.0,1.0,88,0.00,,,0.67,0,WeatherCatV1.21B27,2013-11-01 21:33:00,
2013-11-01 17:34:00,57.8,54.3,28.87,SSE,165,0.0,1.0,88,0.00,,,0.67,0,WeatherCatV1.21B27,2013-11-01 21:34:00,
2013-11-01 17:35:00,57.8,54.3,28.88,SSE,165,0.0,1.0,88,0.00,,,0.67,0,WeatherCatV1.21B27,2013-11-01 21:35:00,
2013-11-01 17:36:00,57.7,54.2,28.88,SSE,165,0.0,1.0,88,0.00,,,0.67,0,WeatherCatV1.21B27,2013-11-01 21:36:00,
2013-11-01 17:37:00,57.7,54.2,28.88,SSE,165,0.0,1.0,88,0.00,,,0.67,0,WeatherCatV1.21B27,2013-11-01 21:37:00,
2013-11-01 17:38:00,57.7,54.2,28.88,SSE,165,0.0,0.0,88,0.00,,,0.67,0,WeatherCatV1.21B27,2013-11-01 21:38:00,
2013-11-01 17:39:00,57.6,54.1,28.88,SSE,165,0.0,0.0,88,0.00,,,0.67,0,WeatherCatV1.21B27,2013-11-01 21:39:00,
2013-11-01 17:41:00,57.6,54.1,28.88,SSE,148,2.0,3.0,88,0.00,,,0.67,0,WeatherCatV1.21B27,2013-11-01 21:41:00,
2013-11-01 17:42:00,57.5,53.7,28.88,South,173,0.0,3.0,87,0.00,,,0.67,0,WeatherCatV1.21B27,2013-11-01 21:42:00,
2013-11-01 17:43:00,57.5,53.7,28.88,South,173,0.0,1.0,87,0.00,,,0.67,0,WeatherCatV1.21B27,2013-11-01 21:43:00,
2013-11-01 17:44:00,57.5,54.0,28.88,South,171,0.0,1.0,88,0.00,,,0.67,0,WeatherCatV1.21B27,2013-11-01 21:44:00,
2013-11-01 17:46:00,57.4,53.9,28.88,SSW,197,0.0,1.0,88,0.00,,,0.67,0,WeatherCatV1.21B27,2013-11-01 21:46:00,
2013-11-01 17:47:00,57.3,53.5,28.89,SSW,197,0.0,1.0,87,0.00,,,0.67,0,WeatherCatV1.21B27,2013-11-01 21:47:00,
2013-11-01 17:48:00,57.3,53.5,28.89,SSW,197,0.0,1.0,87,0.00,,,0.67,0,WeatherCatV1.21B27,2013-11-01 21:48:00,
2013-11-01 17:50:00,57.2,53.7,28.89,SSW,197,0.0,1.0,88,0.00,,,0.67,0,WeatherCatV1.21B27,2013-11-01 21:50:00,
2013-11-01 17:51:00,57.2,53.7,28.89,SSW,197,0.0,1.0,88,0.00,,,0.67,0,WeatherCatV1.21B27,2013-11-01 21:51:00,
2013-11-01 17:53:00,57.1,53.6,28.89,WSW,242,0.0,0.0,88,0.00,,,0.67,0,WeatherCatV1.21B27,2013-11-01 21:53:00,
2013-11-01 17:54:00,57.1,53.6,28.89,WSW,242,0.0,1.0,88,0.00,,,0.67,0,WeatherCatV1.21B27,2013-11-01 21:54:00,
2013-11-01 17:55:00,57.1,53.6,28.89,WSW,242,0.0,1.0,88,0.00,,,0.67,0,WeatherCatV1.21B27,2013-11-01 21:55:00,
2013-11-01 17:56:00,57.0,53.5,28.89,WSW,242,0.0,0.0,88,0.00,,,0.67,0,WeatherCatV1.21B27,2013-11-01 21:56:00,
2013-11-01 17:58:00,56.9,53.4,28.89,South,177,0.0,2.0,88,0.00,,,0.67,0,WeatherCatV1.21B27,2013-11-01 21:58:00,
2013-11-01 17:59:00,56.9,53.4,28.89,South,177,0.0,2.0,88,0.00,,,0.67,0,WeatherCatV1.21B27,2013-11-01 21:59:00,
2013-11-01 18:00:00,56.9,53.4,28.89,South,177,0.0,0.0,88,0.00,,,0.67,0,WeatherCatV1.21B27,2013-11-01 22:00:00,
2013-11-01 18:01:00,56.9,53.4,28.89,South,177,0.0,0.0,88,0.00,,,0.67,0,WeatherCatV1.21B27,2013-11-01 22:01:00,
2013-11-01 18:03:00,56.8,53.3,28.89,WSW,241,0.0,0.0,88,0.00,,,0.67,0,WeatherCatV1.21B27,2013-11-01 22:03:00,
2013-11-01 18:04:00,56.8,53.3,28.89,WSW,241,0.0,0.0,88,0.00,,,0.67,0,WeatherCatV1.21B27,2013-11-01 22:04:00,
2013-11-01 18:05:00,56.8,53.3,28.89,WSW,241,0.0,0.0,88,0.00,,,0.67,0,WeatherCatV1.21B27,2013-11-01 22:05:00,
2013-11-01 18:06:00,56.8,53.3,28.89,WSW,241,0.0,0.0,88,0.00,,,0.67,0,WeatherCatV1.21B27,2013-11-01 22:06:00,
2013-11-01 18:07:00,56.7,53.2,28.89,WSW,241,0.0,0.0,88,0.00,,,0.67,0,WeatherCatV1.21B27,2013-11-01 22:07:00,
2013-11-01 18:09:00,56.7,53.2,28.89,WSW,241,0.0,1.0,88,0.00,,,0.67,0,WeatherCatV1.21B27,2013-11-01 22:09:00,
2013-11-01 18:10:00,56.7,53.2,28.89,WSW,241,0.0,0.0,88,0.00,,,0.67,0,WeatherCatV1.21B27,2013-11-01 22:10:00,
2013-11-01 18:11:00,56.7,53.5,28.89,WSW,241,0.0,0.0,89,0.00,,,0.67,0,WeatherCatV1.21B27,2013-11-01 22:11:00,
2013-11-01 18:12:00,56.6,53.4,28.89,WSW,241,0.0,0.0,89,0.00,,,0.67,0,WeatherCatV1.21B27,2013-11-01 22:12:00,
2013-11-01 18:14:00,56.6,53.4,28.89,WSW,241,0.0,0.0,89,0.00,,,0.67,0,WeatherCatV1.21B27,2013-11-01 22:14:00,
2013-11-01 18:15:00,56.6,53.4,28.89,WSW,241,0.0,1.0,89,0.00,,,0.67,0,WeatherCatV1.21B27,2013-11-01 22:15:00,
2013-11-01 18:17:00,56.6,53.4,28.89,WSW,241,0.0,0.0,89,0.00,,,0.67,0,WeatherCatV1.21B27,2013-11-01 22:17:00,
2013-11-01 18:19:00,56.5,53.3,28.89,WSW,238,0.0,1.0,89,0.00,,,0.67,0,WeatherCatV1.21B27,2013-11-01 22:19:00,
2013-11-01 18:20:00,56.5,53.3,28.89,WSW,238,0.0,1.0,89,0.00,,,0.67,0,WeatherCatV1.21B27,2013-11-01 22:20:00,
2013-11-01 18:21:00,56.5,53.3,28.89,WSW,238,0.0,1.0,89,0.00,,,0.67,0,WeatherCatV1.21B27,2013-11-01 22:21:00,
2013-11-01 18:22:00,56.5,53.3,28.89,WSW,238,0.0,1.0,89,0.00,,,0.67,0,WeatherCatV1.21B27,2013-11-01 22:22:00,
2013-11-01 18:24:00,56.4,53.2,28.89,SSE,151,0.0,1.0,89,0.00,,,0.67,0,WeatherCatV1.21B27,2013-11-01 22:24:00,
2013-11-01 18:25:00,56.4,53.2,28.89,SSE,151,0.0,1.0,89,0.00,,,0.67,0,WeatherCatV1.21B27,2013-11-01 22:25:00,
2013-11-01 18:26:00,56.4,53.2,28.89,SSE,151,0.0,1.0,89,0.00,,,0.67,0,WeatherCatV1.21B27,2013-11-01 22:26:00,
2013-11-01 18:27:00,56.3,53.4,28.89,SSE,151,0.0,0.0,90,0.00,,,0.67,0,WeatherCatV1.21B27,2013-11-01 22:27:00,
2013-11-01 18:30:00,56.3,53.4,28.89,SSE,151,0.0,1.0,90,0.00,,,0.67,0,WeatherCatV1.21B27,2013-11-01 22:30:00,
2013-11-01 18:31:00,56.2,53.3,28.89,SSE,152,0.0,1.0,90,0.00,,,0.67,0,WeatherCatV1.21B27,2013-11-01 22:31:00,
2013-11-01 18:32:00,56.2,53.3,28.89,SSE,152,0.0,1.0,90,0.00,,,0.67,0,WeatherCatV1.21B27,2013-11-01 22:32:00,
2013-11-01 18:35:00,56.2,53.3,28.89,South,177,0.0,2.0,90,0.00,,,0.67,0,WeatherCatV1.21B27,2013-11-01 22:35:00,
2013-11-01 18:36:00,56.1,53.2,28.89,South,177,0.0,2.0,90,0.00,,,0.67,0,WeatherCatV1.21B27,2013-11-01 22:36:00,
2013-11-01 18:37:00,56.1,53.2,28.89,South,177,0.0,1.0,90,0.00,,,0.67,0,WeatherCatV1.21B27,2013-11-01 22:37:00,
2013-11-01 18:40:00,56.0,53.1,28.89,South,177,0.0,1.0,90,0.00,,,0.67,0,WeatherCatV1.21B27,2013-11-01 22:40:00,
2013-11-01 18:41:00,56.0,53.1,28.89,South,177,0.0,1.0,90,0.00,,,0.67,0,WeatherCatV1.21B27,2013-11-01 22:41:00,
2013-11-01 18:42:00,56.0,53.1,28.90,South,177,0.0,0.0,90,0.00,,,0.67,0,WeatherCatV1.21B27,2013-11-01 22:42:00,
2013-11-01 18:43:00,56.0,53.1,28.90,South,177,0.0,0.0,90,0.00,,,0.67,0,WeatherCatV1.21B27,2013-11-01 22:43:00,
2013-11-01 18:46:00,55.9,53.3,28.89,South,177,0.0,0.0,91,0.00,,,0.67,0,WeatherCatV1.21B27,2013-11-01 22:46:00,
2013-11-01 18:47:00,55.8,53.2,28.89,SSE,168,0.0,2.0,91,0.00,,,0.67,0,WeatherCatV1.21B27,2013-11-01 22:47:00,
2013-11-01 18:48:00,55.8,53.2,28.89,SSE,168,1.0,2.0,91,0.00,,,0.67,0,WeatherCatV1.21B27,2013-11-01 22:48:00,
2013-11-01 18:51:00,55.7,53.1,28.89,SSE,155,0.0,1.0,91,0.00,,,0.67,0,WeatherCatV1.21B27,2013-11-01 22:51:00,
2013-11-01 18:52:00,55.7,53.1,28.89,SSE,155,0.0,1.0,91,0.00,,,0.67,0,WeatherCatV1.21B27,2013-11-01 22:52:00,
2013-11-01 18:53:00,55.7,53.1,28.90,SSE,157,0.0,1.0,91,0.00,,,0.67,0,WeatherCatV1.21B27,2013-11-01 22:53:00,
2013-11-01 18:56:00,55.6,52.7,28.90,South,172,0.0,2.0,90,0.00,,,0.67,0,WeatherCatV1.21B27,2013-11-01 22:56:00,
2013-11-01 18:57:00,55.6,52.7,28.90,SE,138,2.0,5.0,90,0.00,,,0.67,0,WeatherCatV1.21B27,2013-11-01 22:57:00,
2013-11-01 18:58:00,55.6,52.7,28.90,SE,139,0.0,5.0,90,0.00,,,0.67,0,WeatherCatV1.21B27,2013-11-01 22:58:00,
2013-11-01 19:01:00,55.5,52.3,28.90,South,183,0.0,0.0,89,0.00,,,0.67,0,WeatherCatV1.21B27,2013-11-01 23:01:00,
2013-11-01 19:02:00,55.5,52.3,28.90,South,183,0.0,0.0,89,0.00,,,0.67,0,WeatherCatV1.21B27,2013-11-01 23:02:00,
2013-11-01 19:03:00,55.5,52.3,28.90,South,183,0.0,0.0,89,0.00,,,0.67,0,WeatherCatV1.21B27,2013-11-01 23:03:00,
2013-11-01 19:04:00,55.5,52.0,28.90,SE,144,2.0,2.0,88,0.00,,,0.67,0,WeatherCatV1.21B27,2013-11-01 23:04:00,
2013-11-01 19:06:00,55.5,51.7,28.90,SSE,148,0.0,1.0,87,0.00,,,0.67,0,WeatherCatV1.21B27,2013-11-01 23:06:00,
2013-11-01 19:07:00,55.5,51.7,28.90,SSE,159,0.0,1.0,87,0.00,,,0.67,0,WeatherCatV1.21B27,2013-11-01 23:07:00,
2013-11-01 19:08:00,55.5,51.7,28.90,SSE,159,0.0,1.0,87,0.00,,,0.67,0,WeatherCatV1.21B27,2013-11-01 23:08:00,
2013-11-01 19:09:00,55.6,51.8,28.90,SSE,156,0.0,1.0,87,0.00,,,0.67,0,WeatherCatV1.21B27,2013-11-01 23:09:00,
2013-11-01 19:11:00,55.6,51.5,28.91,South,176,0.0,1.0,86,0.00,,,0.67,0,WeatherCatV1.21B27,2013-11-01 23:11:00,
2013-11-01 19:12:00,55.6,51.5,28.91,South,176,0.0,0.0,86,0.00,,,0.67,0,WeatherCatV1.21B27,2013-11-01 23:12:00,
2013-11-01 19:13:00,55.6,51.5,28.91,South,176,1.0,1.0,86,0.00,,,0.67,0,WeatherCatV1.21B27,2013-11-01 23:13:00,
2013-11-01 19:14:00,55.6,50.8,28.90,South,170,0.0,1.0,84,0.00,,,0.67,0,WeatherCatV1.21B27,2013-11-01 23:14:00,
2013-11-01 19:16:00,55.6,51.2,28.90,SSE,158,0.0,1.0,85,0.00,,,0.67,0,WeatherCatV1.21B27,2013-11-01 23:16:00,
2013-11-01 19:18:00,55.6,50.8,28.90,South,182,0.0,2.0,84,0.00,,,0.67,0,WeatherCatV1.21B27,2013-11-01 23:18:00,
2013-11-01 19:19:00,55.7,50.9,28.90,SSW,210,0.0,2.0,84,0.00,,,0.67,0,WeatherCatV1.21B27,2013-11-01 23:19:00,
2013-11-01 19:21:00,55.7,50.6,28.90,South,182,0.0,0.0,83,0.00,,,0.67,0,WeatherCatV1.21B27,2013-11-01 23:21:00,
2013-11-01 19:23:00,55.7,50.6,28.91,SSE,161,1.0,4.0,83,0.00,,,0.67,0,WeatherCatV1.21B27,2013-11-01 23:23:00,
2013-11-01 19:24:00,55.7,50.3,28.91,SSE,157,0.0,4.0,82,0.00,,,0.67,0,WeatherCatV1.21B27,2013-11-01 23:24:00,
2013-11-01 19:25:00,55.8,50.1,28.91,SSE,156,0.0,3.0,81,0.00,,,0.67,0,WeatherCatV1.21B27,2013-11-01 23:25:00,
2013-11-01 19:27:00,55.9,50.5,28.91,SSE,157,0.0,1.0,82,0.00,,,0.67,0,WeatherCatV1.21B27,2013-11-01 23:27:00,
2013-11-01 19:29:00,56.0,50.2,28.91,ESE,113,0.0,1.0,81,0.00,,,0.67,0,WeatherCatV1.21B27,2013-11-01 23:29:00,
2013-11-01 19:30:00,56.0,49.6,28.91,East,101,0.0,3.0,79,0.00,,,0.67,0,WeatherCatV1.21B27,2013-11-01 23:30:00,
2013-11-01 19:32:00,56.2,49.4,28.91,South,171,1.0,2.0,78,0.00,,,0.67,0,WeatherCatV1.21B27,2013-11-01 23:32:00,
2013-11-01 19:34:00,56.4,49.3,28.91,West,259,0.0,1.0,77,0.00,,,0.67,0,WeatherCatV1.21B27,2013-11-01 23:34:00,
2013-11-01 19:35:00,56.5,49.7,28.91,South,184,0.0,1.0,78,0.00,,,0.67,0,WeatherCatV1.21B27,2013-11-01 23:35:00,
2013-11-01 19:37:00,56.7,48.5,28.91,South,178,0.0,4.0,74,0.00,,,0.67,0,WeatherCatV1.21B27,2013-11-01 23:37:00,
2013-11-01 19:39:00,56.8,49.3,28.91,South,178,0.0,1.0,76,0.00,,,0.67,0,WeatherCatV1.21B27,2013-11-01 23:39:00,
2013-11-01 19:40:00,56.9,49.8,28.92,South,178,0.0,1.0,77,0.00,,,0.67,0,WeatherCatV1.21B27,2013-11-01 23:40:00,
2013-11-01 19:41:00,57.0,49.5,28.92,South,178,0.0,0.0,76,0.00,,,0.67,0,WeatherCatV1.21B27,2013-11-01 23:41:00,
2013-11-01 19:42:00,57.1,50.0,28.92,South,185,0.0,1.0,77,0.00,,,0.67,0,WeatherCatV1.21B27,2013-11-01 23:42:00,
2013-11-01 19:44:00,57.2,50.0,28.92,South,174,1.0,1.0,77,0.00,,,0.67,0,WeatherCatV1.21B27,2013-11-01 23:44:00,
2013-11-01 19:45:00,57.2,49.7,28.92,SW,227,0.0,2.0,76,0.00,,,0.67,0,WeatherCatV1.21B27,2013-11-01 23:45:00,
2013-11-01 19:46:00,57.3,49.1,28.92,SW,227,0.0,2.0,74,0.00,,,0.67,0,WeatherCatV1.21B27,2013-11-01 23:46:00,
2013-11-01 19:48:00,57.3,49.1,28.93,South,180,0.0,3.0,74,0.00,,,0.67,0,WeatherCatV1.21B27,2013-11-01 23:48:00,
2013-11-01 19:49:00,57.4,49.2,28.93,South,180,0.0,1.0,74,0.00,,,0.67,0,WeatherCatV1.21B27,2013-11-01 23:49:00,
2013-11-01 19:50:00,57.4,49.5,28.92,SE,144,0.0,1.0,75,0.00,,,0.67,0,WeatherCatV1.21B27,2013-11-01 23:50:00,
2013-11-01 19:52:00,57.4,49.2,28.93,SE,144,0.0,0.0,74,0.00,,,0.67,0,WeatherCatV1.21B27,2013-11-01 23:52:00,
2013-11-01 19:53:00,57.4,48.1,28.93,SE,144,0.0,1.0,71,0.00,,,0.67,0,WeatherCatV1.21B27,2013-11-01 23:53:00,
2013-11-01 19:54:00,57.5,48.2,28.93,SW,234,2.0,9.0,71,0.00,,,0.67,0,WeatherCatV1.21B27,2013-11-01 23:54:00,
2013-11-01 19:55:00,57.5,47.0,28.93,SSW,212,1.0,9.0,68,0.00,,,0.67,0,WeatherCatV1.21B27,2013-11-01 23:55:00,
2013-11-01 19:57:00,57.6,48.3,28.93,SSW,211,0.0,0.0,71,0.00,,,0.67,0,WeatherCatV1.21B27,2013-11-01 23:57:00,
2013-11-01 19:58:00,57.7,47.6,28.93,SSW,211,0.0,0.0,69,0.00,,,0.67,0,WeatherCatV1.21B27,2013-11-01 23:58:00,
2013-11-01 19:59:00,57.7,48.0,28.93,SE,146,0.0,1.0,70,0.00,,,0.67,0,WeatherCatV1.21B27,2013-11-01 23:59:00,
2013-11-01 20:00:00,57.8,47.7,28.93,SSE,158,0.0,5.0,69,0.00,,,0.67,0,WeatherCatV1.21B27,2013-11-02 00:00:00,
2013-11-01 20:02:00,57.8,46.9,28.93,SSE,163,0.0,6.0,67,0.00,,,0.67,0,WeatherCatV1.21B27,2013-11-02 00:02:00,
2013-11-01 20:03:00,57.9,47.0,28.93,South,172,1.0,6.0,67,0.00,,,0.67,0,WeatherCatV1.21B27,2013-11-02 00:03:00,
2013-11-01 20:04:00,58.0,47.5,28.94,SSE,163,0.0,6.0,68,0.00,,,0.67,0,WeatherCatV1.21B27,2013-11-02 00:04:00,
2013-11-01 20:06:00,58.1,48.0,28.94,NW,309,0.0,2.0,69,0.00,,,0.67,0,WeatherCatV1.21B27,2013-11-02 00:06:00,
2013-11-01 20:07:00,58.2,48.1,28.94,ESE,115,0.0,1.0,69,0.00,,,0.67,0,WeatherCatV1.21B27,2013-11-02 00:07:00,
2013-11-01 20:08:00,58.2,48.1,28.94,ESE,115,0.0,1.0,69,0.00,,,0.67,0,WeatherCatV1.21B27,2013-11-02 00:08:00,
2013-11-01 20:09:00,58.2,48.5,28.94,SSE,149,3.0,5.0,70,0.00,,,0.67,0,WeatherCatV1.21B27,2013-11-02 00:09:00,
2013-11-01 20:10:00,58.3,48.6,28.94,SSW,196,1.0,5.0,70,0.00,,,0.67,0,WeatherCatV1.21B27,2013-11-02 00:10:00,
2013-11-01 20:11:00,58.3,48.6,28.94,SSE,153,2.0,5.0,70,0.00,,,0.67,0,WeatherCatV1.21B27,2013-11-02 00:11:00,
2013-11-01 20:13:00,58.3,47.4,28.94,SSE,165,0.0,2.0,67,0.00,,,0.67,0,WeatherCatV1.21B27,2013-11-02 00:13:00,
2013-11-01 20:14:00,58.3,48.2,28.95,WSW,238,3.0,3.0,69,0.00,,,0.67,0,WeatherCatV1.21B27,2013-11-02 00:14:00,
2013-11-01 20:15:00,58.3,47.0,28.95,WSW,238,0.0,3.0,66,0.00,,,0.67,0,WeatherCatV1.21B27,2013-11-02 00:15:00,
2013-11-01 20:17:00,58.3,46.6,28.95,South,169,0.0,1.0,65,0.00,,,0.67,0,WeatherCatV1.21B27,2013-11-02 00:17:00,
2013-11-01 20:18:00,58.4,47.1,28.95,South,169,0.0,1.0,66,0.00,,,0.67,0,WeatherCatV1.21B27,2013-11-02 00:18:00,
2013-11-01 20:19:00,58.4,48.3,28.95,WNW,295,0.0,3.0,69,0.00,,,0.67,0,WeatherCatV1.21B27,2013-11-02 00:19:00,
2013-11-01 20:20:00,58.4,48.3,28.95,SSE,168,0.0,3.0,69,0.00,,,0.67,0,WeatherCatV1.21B27,2013-11-02 00:20:00,
2013-11-01 20:22:00,58.4,47.9,28.95,South,169,0.0,0.0,68,0.00,,,0.67,0,WeatherCatV1.21B27,2013-11-02 00:22:00,
2013-11-01 20:23:00,58.4,47.9,28.96,South,169,0.0,0.0,68,0.00,,,0.67,0,WeatherCatV1.21B27,2013-11-02 00:23:00,
2013-11-01 20:24:00,58.4,47.9,28.96,South,169,0.0,0.0,68,0.00,,,0.67,0,WeatherCatV1.21B27,2013-11-02 00:24:00,
2013-11-01 20:25:00,58.4,47.1,28.95,SSE,163,0.0,2.0,66,0.00,,,0.67,0,WeatherCatV1.21B27,2013-11-02 00:25:00,
2013-11-01 20:28:00,58.4,47.9,28.96,ESE,120,0.0,1.0,68,0.00,,,0.67,0,WeatherCatV1.21B27,2013-11-02 00:28:00,
2013-11-01 20:30:00,58.4,47.9,28.96,ESE,120,0.0,2.0,68,0.00,,,0.67,0,WeatherCatV1.21B27,2013-11-02 00:30:00,
2013-11-01 20:31:00,58.4,47.5,28.96,ESE,119,0.0,2.0,67,0.00,,,0.67,0,WeatherCatV1.21B27,2013-11-02 00:31:00,
2013-11-01 20:33:00,58.3,47.4,28.96,ESE,119,0.0,1.0,67,0.00,,,0.67,0,WeatherCatV1.21B27,2013-11-02 00:33:00,
2013-11-01 20:35:00,58.3,48.2,28.96,ESE,119,0.0,0.0,69,0.00,,,0.67,0,WeatherCatV1.21B27,2013-11-02 00:35:00,
2013-11-01 20:36:00,58.3,47.8,28.96,SW,221,1.0,5.0,68,0.00,,,0.67,0,WeatherCatV1.21B27,2013-11-02 00:36:00,
2013-11-01 20:39:00,58.2,47.3,28.97,SW,221,0.0,1.0,67,0.00,,,0.67,0,WeatherCatV1.21B27,2013-11-02 00:39:00,
2013-11-01 20:40:00,58.1,47.6,28.97,SW,221,0.0,1.0,68,0.00,,,0.67,0,WeatherCatV1.21B27,2013-11-02 00:40:00,
2013-11-01 20:41:00,58.1,47.2,28.97,SW,221,0.0,1.0,67,0.00,,,0.67,0,WeatherCatV1.21B27,2013-11-02 00:41:00,
2013-11-01 20:42:00,58.1,46.8,28.97,East,94,0.0,2.0,66,0.00,,,0.67,0,WeatherCatV1.21B27,2013-11-02 00:42:00,
2013-11-01 20:44:00,58.0,47.5,28.97,East,94,0.0,0.0,68,0.00,,,0.67,0,WeatherCatV1.21B27,2013-11-02 00:44:00,
2013-11-01 20:45:00,57.9,47.4,28.97,East,94,0.0,0.0,68,0.00,,,0.67,0,WeatherCatV1.21B27,2013-11-02 00:45:00,
2013-11-01 20:46:00,57.9,47.0,28.97,East,94,0.0,0.0,67,0.00,,,0.67,0,WeatherCatV1.21B27,2013-11-02 00:46:00,
2013-11-01 20:47:00,57.9,47.0,28.97,East,94,0.0,0.0,67,0.00,,,0.67,0,WeatherCatV1.21B27,2013-11-02 00:47:00,
2013-11-01 20:49:00,57.7,47.2,28.98,East,94,0.0,0.0,68,0.00,,,0.67,0,WeatherCatV1.21B27,2013-11-02 00:49:00,
2013-11-01 20:50:00,57.7,47.6,28.98,East,94,0.0,0.0,69,0.00,,,0.67,0,WeatherCatV1.21B27,2013-11-02 00:50:00,
2013-11-01 20:51:00,57.7,47.6,28.98,East,94,0.0,0.0,69,0.00,,,0.67,0,WeatherCatV1.21B27,2013-11-02 00:51:00,
2013-11-01 20:52:00,57.6,46.7,28.98,East,92,0.0,1.0,67,0.00,,,0.67,0,WeatherCatV1.21B27,2013-11-02 00:52:00,
2013-11-01 20:55:00,57.5,47.0,28.98,East,92,0.0,0.0,68,0.00,,,0.67,0,WeatherCatV1.21B27,2013-11-02 00:55:00,
2013-11-01 20:56:00,57.4,47.3,28.98,East,92,0.0,0.0,69,0.00,,,0.67,0,WeatherCatV1.21B27,2013-11-02 00:56:00,
2013-11-01 20:57:00,57.4,47.3,28.98,East,92,0.0,0.0,69,0.00,,,0.67,0,WeatherCatV1.21B27,2013-11-02 00:57:00,
2013-11-01 21:00:00,57.3,46.4,28.99,East,92,0.0,1.0,67,0.00,,,0.67,0,WeatherCatV1.21B27,2013-11-02 01:00:00,
2013-11-01 21:01:00,57.2,47.1,28.99,East,92,0.0,1.0,69,0.00,,,0.67,0,WeatherCatV1.21B27,2013-11-02 01:01:00,
2013-11-01 21:03:00,57.1,46.2,28.99,ENE,77,0.0,2.0,67,0.00,,,0.67,0,WeatherCatV1.21B27,2013-11-02 01:03:00,
2013-11-01 21:05:00,56.9,46.5,28.99,East,96,0.0,4.0,68,0.00,,,0.67,0,WeatherCatV1.21B27,2013-11-02 01:05:00,
2013-11-01 21:06:00,56.9,46.5,28.99,SSW,198,0.0,4.0,68,0.00,,,0.67,0,WeatherCatV1.21B27,2013-11-02 01:06:00,
2013-11-01 21:08:00,56.8,46.7,28.99,SSW,198,0.0,0.0,69,0.00,,,0.67,0,WeatherCatV1.21B27,2013-11-02 01:08:00,
2013-11-01 21:10:00,56.7,45.9,28.99,SE,126,0.0,3.0,67,0.00,,,0.67,0,WeatherCatV1.21B27,2013-11-02 01:10:00,
2013-11-01 21:11:00,56.7,45.9,29.00,SE,126,0.0,3.0,67,0.00,,,0.67,0,WeatherCatV1.21B27,2013-11-02 01:11:00,
2013-11-01 21:12:00,56.7,46.3,29.00,SE,126,0.0,0.0,68,0.00,,,0.67,0,WeatherCatV1.21B27,2013-11-02 01:12:00,
2013-11-01 21:13:00,56.6,45.4,29.00,SE,126,0.0,1.0,66,0.00,,,0.67,0,WeatherCatV1.21B27,2013-11-02 01:13:00,
2013-11-01 21:14:00,56.6,45.4,29.00,SE,126,0.0,1.0,66,0.00,,,0.67,0,WeatherCatV1.21B27,2013-11-02 01:14:00,
2013-11-01 21:16:00,56.6,46.2,29.00,SE,126,0.0,1.0,68,0.00,,,0.67,0,WeatherCatV1.21B27,2013-11-02 01:16:00,
2013-11-01 21:17:00,56.6,46.5,29.00,SE,126,0.0,0.0,69,0.00,,,0.67,0,WeatherCatV1.21B27,2013-11-02 01:17:00,
2013-11-01 21:18:00,56.6,46.5,29.00,SE,126,0.0,0.0,69,0.00,,,0.67,0,WeatherCatV1.21B27,2013-11-02 01:18:00,
2013-11-01 21:19:00,56.5,45.7,29.01,SE,126,0.0,0.0,67,0.00,,,0.67,0,WeatherCatV1.21B27,2013-11-02 01:19:00,
2013-11-01 21:21:00,56.5,45.7,29.01,SE,126,0.0,0.0,67,0.00,,,0.67,0,WeatherCatV1.21B27,2013-11-02 01:21:00,
2013-11-01 21:22:00,56.5,45.7,29.01,SE,126,0.0,1.0,67,0.00,,,0.67,0,WeatherCatV1.21B27,2013-11-02 01:22:00,
2013-11-01 21:23:00,56.5,46.5,29.01,SE,126,0.0,1.0,69,0.00,,,0.67,0,WeatherCatV1.21B27,2013-11-02 01:23:00,
2013-11-01 21:24:00,56.5,45.3,29.01,SSE,167,1.0,2.0,66,0.00,,,0.67,0,WeatherCatV1.21B27,2013-11-02 01:24:00,
2013-11-01 21:26:00,56.5,46.5,29.02,SSE,167,0.0,0.0,69,0.00,,,0.67,0,WeatherCatV1.21B27,2013-11-02 01:26:00,
2013-11-01 21:27:00,56.5,46.5,29.02,SSE,167,0.0,0.0,69,0.00,,,0.67,0,WeatherCatV1.21B27,2013-11-02 01:27:00,
2013-11-01 21:28:00,56.5,46.8,29.02,SSE,167,0.0,0.0,70,0.00,,,0.67,0,WeatherCatV1.21B27,2013-11-02 01:28:00,
2013-11-01 21:29:00,56.5,46.5,29.02,SSE,167,0.0,0.0,69,0.00,,,0.67,0,WeatherCatV1.21B27,2013-11-02 01:29:00,
2013-11-01 21:30:00,56.5,46.8,29.02,SSE,160,1.0,5.0,70,0.00,,,0.67,0,WeatherCatV1.21B27,2013-11-02 01:30:00,
2013-11-01 21:31:00,56.5,46.8,29.02,NW,306,0.0,5.0,70,0.00,,,0.67,0,WeatherCatV1.21B27,2013-11-02 01:31:00,
2013-11-01 21:32:00,56.4,46.4,29.02,North,0,0.0,1.0,69,0.00,,,0.67,0,WeatherCatV1.21B27,2013-11-02 01:32:00,
2013-11-01 21:33:00,56.4,46.0,29.03,North,0,0.0,1.0,68,0.00,,,0.67,0,WeatherCatV1.21B27,2013-11-02 01:33:00,
2013-11-01 21:34:00,56.3,45.9,29.03,North,0,0.0,1.0,68,0.00,,,0.67,0,WeatherCatV1.21B27,2013-11-02 01:34:00,
2013-11-01 21:35:00,56.3,45.1,29.03,NNE,15,4.0,4.0,66,0.00,,,0.67,0,WeatherCatV1.21B27,2013-11-02 01:35:00,
2013-11-01 21:36:00,56.3,44.7,29.03,NNE,19,1.0,4.0,65,0.00,,,0.67,0,WeatherCatV1.21B27,2013-11-02 01:36:00,
2013-11-01 21:37:00,56.3,44.7,29.03,NNE,17,2.0,3.0,65,0.00,,,0.67,0,WeatherCatV1.21B27,2013-11-02 01:37:00,
2013-11-01 21:39:00,56.4,44.8,29.03,NNE,20,1.0,5.0,65,0.00,,,0.67,0,WeatherCatV1.21B27,2013-11-02 01:39:00,
2013-11-01 21:40:00,56.4,45.2,29.03,SE,126,0.0,5.0,66,0.00,,,0.67,0,WeatherCatV1.21B27,2013-11-02 01:40:00,
2013-11-01 21:41:00,56.5,45.7,29.03,NNE,22,0.0,5.0,67,0.00,,,0.67,0,WeatherCatV1.21B27,2013-11-02 01:41:00,
2013-11-01 21:42:00,56.5,45.7,29.03,NNE,28,0.0,5.0,67,0.00,,,0.67,0,WeatherCatV1.21B27,2013-11-02 01:42:00,
2013-11-01 21:43:00,56.5,45.3,29.03,NNE,28,0.0,5.0,66,0.00,,,0.67,0,WeatherCatV1.21B27,2013-11-02 01:43:00,
2013-11-01 21:44:00,56.6,44.6,29.04,ESE,113,0.0,4.0,64,0.00,,,0.67,0,WeatherCatV1.21B27,2013-11-02 01:44:00,
2013-11-01 21:45:00,56.6,46.2,29.04,SE,134,0.0,4.0,68,0.00,,,0.67,0,WeatherCatV1.21B27,2013-11-02 01:45:00,
2013-11-01 21:47:00,56.7,46.6,29.04,WSW,243,2.0,2.0,69,0.00,,,0.67,0,WeatherCatV1.21B27,2013-11-02 01:47:00,
2013-11-01 21:48:00,56.7,47.0,29.05,WSW,242,0.0,2.0,70,0.00,,,0.67,0,WeatherCatV1.21B27,2013-11-02 01:48:00,
2013-11-01 21:49:00,56.7,47.0,29.05,NE,41,0.0,2.0,70,0.00,,,0.67,0,WeatherCatV1.21B27,2013-11-02 01:49:00,
2013-11-01 21:50:00,56.7,46.6,29.05,NE,41,0.0,0.0,69,0.00,,,0.67,0,WeatherCatV1.21B27,2013-11-02 01:50:00,
2013-11-01 21:52:00,56.7,46.6,29.06,NE,41,0.0,1.0,69,0.00,,,0.67,0,WeatherCatV1.21B27,2013-11-02 01:52:00,
2013-11-01 21:53:00,56.7,46.3,29.06,NE,38,0.0,0.0,68,0.00,,,0.67,0,WeatherCatV1.21B27,2013-11-02 01:53:00,
2013-11-01 21:54:00,56.7,46.6,29.06,NNE,32,0.0,1.0,69,0.00,,,0.67,0,WeatherCatV1.21B27,2013-11-02 01:54:00,
2013-11-01 21:55:00,56.7,45.1,29.06,NNE,26,0.0,1.0,65,0.00,,,0.67,0,WeatherCatV1.21B27,2013-11-02 01:55:00,
2013-11-01 21:57:00,56.6,45.8,29.06,NNE,27,0.0,1.0,67,0.00,,,0.67,0,WeatherCatV1.21B27,2013-11-02 01:57:00,
2013-11-01 21:58:00,56.6,45.8,29.06,NNE,26,0.0,1.0,67,0.00,,,0.67,0,WeatherCatV1.21B27,2013-11-02 01:58:00,
2013-11-01 21:59:00,56.6,45.0,29.06,NNE,26,0.0,0.0,65,0.00,,,0.67,0,WeatherCatV1.21B27,2013-11-02 01:59:00,
2013-11-01 22:00:00,56.6,45.0,29.06,NNE,26,0.0,0.0,65,0.00,,,0.67,0,WeatherCatV1.21B27,2013-11-02 02:00:00,
2013-11-01 22:03:00,56.6,46.5,29.06,NNE,26,0.0,0.0,69,0.00,,,0.67,0,WeatherCatV1.21B27,2013-11-02 02:03:00,
2013-11-01 22:04:00,56.5,47.2,29.06,NNE,26,0.0,0.0,71,0.00,,,0.67,0,WeatherCatV1.21B27,2013-11-02 02:04:00,
2013-11-01 22:05:00,56.5,46.8,29.06,NNE,26,0.0,0.0,70,0.00,,,0.67,0,WeatherCatV1.21B27,2013-11-02 02:05:00,
2013-11-01 22:06:00,56.5,47.2,29.06,NNE,26,0.0,0.0,71,0.00,,,0.67,0,WeatherCatV1.21B27,2013-11-02 02:06:00,
2013-11-01 22:08:00,56.4,44.8,29.06,NE,55,0.0,3.0,65,0.00,,,0.67,0,WeatherCatV1.21B27,2013-11-02 02:08:00,
2013-11-01 22:09:00,56.4,44.8,29.06,NE,55,0.0,3.0,65,0.00,,,0.67,0,WeatherCatV1.21B27,2013-11-02 02:09:00,
2013-11-01 22:10:00,56.3,44.7,29.06,NE,55,0.0,1.0,65,0.00,,,0.67,0,WeatherCatV1.21B27,2013-11-02 02:10:00,
2013-11-01 22:11:00,56.3,44.7,29.06,NE,55,0.0,0.0,65,0.00,,,0.67,0,WeatherCatV1.21B27,2013-11-02 02:11:00,
2013-11-01 22:13:00,56.3,45.1,29.06,NE,55,0.0,0.0,66,0.00,,,0.67,0,WeatherCatV1.21B27,2013-11-02 02:13:00,
2013-11-01 22:15:00,56.2,45.4,29.06,NE,55,0.0,0.0,67,0.00,,,0.67,0,WeatherCatV1.21B27,2013-11-02 02:15:00,
2013-11-01 22:16:00,56.2,46.5,29.06,NE,55,0.0,0.0,70,0.00,,,0.67,0,WeatherCatV1.21B27,2013-11-02 02:16:00,
2013-11-01 22:18:00,56.1,44.9,29.06,NE,51,0.0,2.0,66,0.00,,,0.67,0,WeatherCatV1.21B27,2013-11-02 02:18:00,
2013-11-01 22:20:00,56.1,45.3,29.06,NE,51,0.0,0.0,67,0.00,,,0.67,0,WeatherCatV1.21B27,2013-11-02 02:20:00,
2013-11-01 22:21:00,56.0,45.6,29.06,NE,51,0.0,0.0,68,0.00,,,0.67,0,WeatherCatV1.21B27,2013-11-02 02:21:00,
2013-11-01 22:22:00,56.0,45.6,29.06,NE,51,0.0,0.0,68,0.00,,,0.67,0,WeatherCatV1.21B27,2013-11-02 02:22:00,
2013-11-01 22:23:00,55.9,45.5,29.06,NE,51,0.0,1.0,68,0.00,,,0.67,0,WeatherCatV1.21B27,2013-11-02 02:23:00,
2013-11-01 22:25:00,55.9,46.3,29.06,NE,51,0.0,0.0,70,0.00,,,0.67,0,WeatherCatV1.21B27,2013-11-02 02:25:00,
2013-11-01 22:26:00,55.8,45.4,29.06,NE,49,0.0,1.0,68,0.00,,,0.67,0,WeatherCatV1.21B27,2013-11-02 02:26:00,
2013-11-01 22:27:00,55.7,44.9,29.07,NE,49,0.0,1.0,67,0.00,,,0.67,0,WeatherCatV1.21B27,2013-11-02 02:27:00,
2013-11-01 22:28:00,55.6,45.2,29.06,WSW,244,0.0,3.0,68,0.00,,,0.67,0,WeatherCatV1.21B27,2013-11-02 02:28:00,
2013-11-01 22:29:00,55.6,44.8,29.06,WSW,244,0.0,3.0,67,0.00,,,0.67,0,WeatherCatV1.21B27,2013-11-02 02:29:00,
2013-11-01 22:31:00,55.5,45.5,29.07,WNW,284,0.0,2.0,69,0.00,,,0.67,0,WeatherCatV1.21B27,2013-11-02 02:31:00,
2013-11-01 22:32:00,55.4,45.0,29.06,WNW,284,0.0,0.0,68,0.00,,,0.67,0,WeatherCatV1.21B27,2013-11-02 02:32:00,
2013-11-01 22:33:00,55.3,45.3,29.07,WNW,298,1.0,1.0,69,0.00,,,0.67,0,WeatherCatV1.21B27,2013-11-02 02:33:00,
2013-11-01 22:34:00,55.3,44.1,29.07,NNE,15,2.0,3.0,66,0.00,,,0.67,0,WeatherCatV1.21B27,2013-11-02 02:34:00,
2013-11-01 22:36:00,55.1,44.3,29.07,SW,219,0.0,1.0,67,0.00,,,0.67,0,WeatherCatV1.21B27,2013-11-02 02:36:00,
2013-11-01 22:37:00,55.1,44.7,29.07,SW,219,0.0,1.0,68,0.00,,,0.67,0,WeatherCatV1.21B27,2013-11-02 02:37:00,
2013-11-01 22:38:00,55.0,45.0,29.07,SW,219,0.0,0.0,69,0.00,,,0.67,0,WeatherCatV1.21B27,2013-11-02 02:38:00,
2013-11-01 22:39:00,55.0,45.4,29.07,SW,219,0.0,0.0,70,0.00,,,0.67,0,WeatherCatV1.21B27,2013-11-02 02:39:00,
2013-11-01 22:41:00,54.9,44.2,29.07,SW,219,0.0,0.0,67,0.00,,,0.67,0,WeatherCatV1.21B27,2013-11-02 02:41:00,
2013-11-01 22:42:00,54.9,43.8,29.07,SE,136,1.0,1.0,66,0.00,,,0.67,0,WeatherCatV1.21B27,2013-11-02 02:42:00,
2013-11-01 22:44:00,54.9,44.2,29.07,SE,136,0.0,0.0,67,0.00,,,0.67,0,WeatherCatV1.21B27,2013-11-02 02:44:00,
2013-11-01 22:46:00,54.8,43.7,29.08,West,261,0.0,1.0,66,0.00,,,0.67,0,WeatherCatV1.21B27,2013-11-02 02:46:00,
2013-11-01 22:47:00,54.8,44.4,29.07,NE,55,0.0,2.0,68,0.00,,,0.67,0,WeatherCatV1.21B27,2013-11-02 02:47:00,
2013-11-01 22:49:00,54.8,44.4,29.07,NE,55,0.0,1.0,68,0.00,,,0.67,0,WeatherCatV1.21B27,2013-11-02 02:49:00,
2013-11-01 22:50:00,54.8,44.0,29.08,NE,54,0.0,1.0,67,0.00,,,0.67,0,WeatherCatV1.21B27,2013-11-02 02:50:00,
2013-11-01 22:51:00,54.8,44.4,29.08,NE,54,0.0,0.0,68,0.00,,,0.67,0,WeatherCatV1.21B27,2013-11-02 02:51:00,
2013-11-01 22:53:00,54.8,44.0,29.08,NNW,338,0.0,1.0,67,0.00,,,0.67,0,WeatherCatV1.21B27,2013-11-02 02:53:00,
2013-11-01 22:54:00,54.7,44.0,29.07,NNE,17,3.0,6.0,67,0.00,,,0.67,0,WeatherCatV1.21B27,2013-11-02 02:54:00,
2013-11-01 22:55:00,54.7,43.2,29.07,ENE,65,1.0,6.0,65,0.00,,,0.67,0,WeatherCatV1.21B27,2013-11-02 02:55:00,
2013-11-01 22:56:00,54.8,43.7,29.08,NW,316,0.0,6.0,66,0.00,,,0.67,0,WeatherCatV1.21B27,2013-11-02 02:56:00,
2013-11-01 22:58:00,54.8,44.0,29.08,NW,316,0.0,0.0,67,0.00,,,0.67,0,WeatherCatV1.21B27,2013-11-02 02:58:00,
2013-11-01 22:59:00,54.8,44.4,29.07,SE,125,1.0,2.0,68,0.00,,,0.67,0,WeatherCatV1.21B27,2013-11-02 02:59:00,
2013-11-01 23:00:00,54.8,44.0,29.07,SE,125,0.0,2.0,67,0.00,,,0.67,0,WeatherCatV1.21B27,2013-11-02 03:00:00,
2013-11-01 23:01:00,54.8,44.4,29.08,SE,125,0.0,0.0,68,0.00,,,0.67,0,WeatherCatV1.21B27,2013-11-02 03:01:00,
2013-11-01 23:04:00,54.8,44.8,29.08,SE,125,0.0,0.0,69,0.00,,,0.67,0,WeatherCatV1.21B27,2013-11-02 03:04:00,
2013-11-01 23:05:00,54.8,44.4,29.08,SE,125,0.0,0.0,68,0.00,,,0.67,0,WeatherCatV1.21B27,2013-11-02 03:05:00,
2013-11-01 23:07:00,54.8,44.8,29.08,SE,125,0.0,0.0,69,0.00,,,0.67,0,WeatherCatV1.21B27,2013-11-02 03:07:00,
2013-11-01 23:09:00,54.8,44.4,29.08,SE,127,0.0,0.0,68,0.00,,,0.67,0,WeatherCatV1.21B27,2013-11-02 03:09:00,
2013-11-01 23:10:00,54.8,44.4,29.08,SE,127,0.0,1.0,68,0.00,,,0.67,0,WeatherCatV1.21B27,2013-11-02 03:10:00,
2013-11-01 23:11:00,54.7,44.0,29.08,SE,127,0.0,1.0,67,0.00,,,0.67,0,WeatherCatV1.21B27,2013-11-02 03:11:00,
2013-11-01 23:12:00,54.7,43.6,29.08,SE,127,0.0,0.0,66,0.00,,,0.67,0,WeatherCatV1.21B27,2013-11-02 03:12:00,
2013-11-01 23:14:00,54.7,44.0,29.08,ENE,63,0.0,4.0,67,0.00,,,0.67,0,WeatherCatV1.21B27,2013-11-02 03:14:00,
2013-11-01 23:15:00,54.6,43.5,29.08,ENE,63,0.0,1.0,66,0.00,,,0.67,0,WeatherCatV1.21B27,2013-11-02 03:15:00,
2013-11-01 23:16:00,54.6,43.9,29.08,ENE,63,0.0,0.0,67,0.00,,,0.67,0,WeatherCatV1.21B27,2013-11-02 03:16:00,
2013-11-01 23:17:00,54.6,43.9,29.08,ENE,63,0.0,0.0,67,0.00,,,0.67,0,WeatherCatV1.21B27,2013-11-02 03:17:00,
2013-11-01 23:18:00,54.6,44.2,29.08,ENE,63,0.0,0.0,68,0.00,,,0.67,0,WeatherCatV1.21B27,2013-11-02 03:18:00,
2013-11-01 23:19:00,54.6,44.2,29.08,ENE,63,0.0,0.0,68,0.00,,,0.67,0,WeatherCatV1.21B27,2013-11-02 03:19:00,
2013-11-01 23:20:00,54.6,44.6,29.08,SW,218,2.0,2.0,69,0.00,,,0.67,0,WeatherCatV1.21B27,2013-11-02 03:20:00,
2013-11-01 23:21:00,54.6,44.2,29.08,SW,230,0.0,2.0,68,0.00,,,0.67,0,WeatherCatV1.21B27,2013-11-02 03:21:00,
2013-11-01 23:22:00,54.5,43.0,29.08,SW,230,0.0,2.0,65,0.00,,,0.67,0,WeatherCatV1.21B27,2013-11-02 03:22:00,
2013-11-01 23:23:00,54.5,43.8,29.08,SW,230,0.0,1.0,67,0.00,,,0.67,0,WeatherCatV1.21B27,2013-11-02 03:23:00,
2013-11-01 23:24:00,54.4,44.4,29.08,SW,222,0.0,1.0,69,0.00,,,0.67,0,WeatherCatV1.21B27,2013-11-02 03:24:00,
2013-11-01 23:25:00,54.4,44.1,29.08,SW,223,0.0,1.0,68,0.00,,,0.67,0,WeatherCatV1.21B27,2013-11-02 03:25:00,
2013-11-01 23:26:00,54.4,44.1,29.08,SW,223,0.0,1.0,68,0.00,,,0.67,0,WeatherCatV1.21B27,2013-11-02 03:26:00,
2013-11-01 23:27:00,54.4,44.1,29.08,SW,223,0.0,0.0,68,0.00,,,0.67,0,WeatherCatV1.21B27,2013-11-02 03:27:00,
2013-11-01 23:28:00,54.3,44.0,29.08,SW,223,0.0,0.0,68,0.00,,,0.67,0,WeatherCatV1.21B27,2013-11-02 03:28:00,
2013-11-01 23:30:00,54.3,44.7,29.08,SW,223,0.0,0.0,70,0.00,,,0.67,0,WeatherCatV1.21B27,2013-11-02 03:30:00,
2013-11-01 23:32:00,54.2,44.2,29.09,SW,223,0.0,0.0,69,0.00,,,0.67,0,WeatherCatV1.21B27,2013-11-02 03:32:00,
2013-11-01 23:33:00,54.2,44.6,29.08,SW,223,0.0,0.0,70,0.00,,,0.67,0,WeatherCatV1.21B27,2013-11-02 03:33:00,
2013-11-01 23:35:00,54.1,44.2,29.09,SW,223,0.0,1.0,69,0.00,,,0.67,0,WeatherCatV1.21B27,2013-11-02 03:35:00,
2013-11-01 23:36:00,54.1,44.2,29.09,SW,223,0.0,0.0,69,0.00,,,0.67,0,WeatherCatV1.21B27,2013-11-02 03:36:00,
2013-11-01 23:37:00,54.1,44.2,29.08,SW,223,0.0,0.0,69,0.00,,,0.67,0,WeatherCatV1.21B27,2013-11-02 03:37:00,
2013-11-01 23:38:00,54.1,44.5,29.09,SW,223,0.0,0.0,70,0.00,,,0.67,0,WeatherCatV1.21B27,2013-11-02 03:38:00,
2013-11-01 23:39:00,54.0,44.8,29.09,SW,223,0.0,0.0,71,0.00,,,0.67,0,WeatherCatV1.21B27,2013-11-02 03:39:00,
2013-11-01 23:40:00,53.9,44.3,29.09,SW,223,1.0,1.0,70,0.00,,,0.67,0,WeatherCatV1.21B27,2013-11-02 03:40:00,
2013-11-01 23:41:00,53.9,44.0,29.09,SW,223,0.0,1.0,69,0.00,,,0.67,0,WeatherCatV1.21B27,2013-11-02 03:41:00,
2013-11-01 23:42:00,53.9,44.3,29.09,SW,223,0.0,0.0,70,0.00,,,0.67,0,WeatherCatV1.21B27,2013-11-02 03:42:00,
2013-11-01 23:43:00,53.8,44.2,29.09,SW,223,0.0,0.0,70,0.00,,,0.67,0,WeatherCatV1.21B27,2013-11-02 03:43:00,
2013-11-01 23:44:00,53.8,44.2,29.09,SW,223,0.0,0.0,70,0.00,,,0.67,0,WeatherCatV1.21B27,2013-11-02 03:44:00,
2013-11-01 23:45:00,53.7,43.8,29.09,SW,223,0.0,0.0,69,0.00,,,0.67,0,WeatherCatV1.21B27,2013-11-02 03:45:00,
2013-11-01 23:46:00,53.7,43.8,29.09,SW,223,0.0,0.0,69,0.00,,,0.67,0,WeatherCatV1.21B27,2013-11-02 03:46:00,
2013-11-01 23:47:00,53.6,43.7,29.09,SW,223,0.0,0.0,69,0.00,,,0.67,0,WeatherCatV1.21B27,2013-11-02 03:47:00,
2013-11-01 23:48:00,53.6,44.4,29.09,SW,223,0.0,0.0,71,0.00,,,0.67,0,WeatherCatV1.21B27,2013-11-02 03:48:00,
2013-11-01 23:50:00,53.5,44.3,29.08,SW,223,0.0,0.0,71,0.00,,,0.67,0,WeatherCatV1.21B27,2013-11-02 03:50:00,
2013-11-01 23:51:00,53.5,44.3,29.08,SW,223,0.0,0.0,71,0.00,,,0.67,0,WeatherCatV1.21B27,2013-11-02 03:51:00,
2013-11-01 23:52:00,53.4,43.9,29.08,WSW,246,0.0,3.0,70,0.00,,,0.67,0,WeatherCatV1.21B27,2013-11-02 03:52:00,